| time (UTC) | temp F | wind direction | speed knots | gust knots | rain 1hr in | rain 24hr in | rain mn in | humidity % | barometer mb |
| 20260507034029 | 62 | 360 | 5.2 | 9.6 | 0.00 | 0.00 | 0.00 | 82 | 1016.1 |
| 20260507033950 | 62 | 360 | 5.2 | 9.6 | 0.00 | 0.00 | 0.00 | 81 | 1016.0 |
| 20260507033849 | 62 | 360 | 5.2 | 9.6 | 0.00 | 0.00 | 0.00 | 82 | 1015.8 |
| 20260507033728 | 62 | 360 | 5.2 | 8.7 | 0.00 | 0.00 | 0.00 | 81 | 1015.8 |
| 20260507033649 | 62 | 360 | 5.2 | 8.7 | 0.00 | 0.00 | 0.00 | 81 | 1015.8 |
| 20260507033529 | 62 | 360 | 5.2 | 8.7 | 0.00 | 0.00 | 0.00 | 81 | 1015.8 |
| 20260507033429 | 62 | 360 | 5.2 | 8.7 | 0.00 | 0.00 | 0.00 | 81 | 1015.9 |
| 20260507033333 | 62 | 360 | 4.3 | 7.8 | 0.00 | 0.00 | 0.00 | 81 | 1015.9 |
| 20260507033234 | 62 | 360 | 4.3 | 7.8 | 0.00 | 0.00 | 0.00 | 81 | 1015.8 |
| 20260507033135 | 62 | 360 | 4.3 | 10.4 | 0.00 | 0.00 | 0.00 | 81 | 1015.8 |
| 20260507033035 | 62 | 360 | 4.3 | 10.4 | 0.00 | 0.00 | 0.00 | 81 | 1015.8 |
| 20260507032917 | 62 | 360 | 4.3 | 10.4 | 0.00 | 0.00 | 0.00 | 81 | 1015.9 |
| 20260507032819 | 62 | 360 | 4.3 | 10.4 | 0.00 | 0.00 | 0.00 | 81 | 1015.9 |
| 20260507032744 | 62 | 360 | 4.3 | 10.4 | 0.00 | 0.00 | 0.00 | 81 | 1015.9 |
| 20260507032622 | 62 | 360 | 4.3 | 11.3 | 0.00 | 0.00 | 0.00 | 81 | 1016.0 |
| 20260507032523 | 62 | 360 | 4.3 | 11.3 | 0.00 | 0.00 | 0.00 | 81 | 1015.9 |
| 20260507032443 | 62 | 360 | 5.2 | 11.3 | 0.00 | 0.00 | 0.00 | 81 | 1015.9 |
| 20260507032323 | 62 | 360 | 5.2 | 11.3 | 0.00 | 0.00 | 0.00 | 81 | 1015.9 |
| 20260507032224 | 62 | 360 | 6.1 | 11.3 | 0.00 | 0.00 | 0.00 | 81 | 1015.8 |
| 20260507032144 | 62 | 360 | 6.1 | 11.3 | 0.00 | 0.00 | 0.00 | 81 | 1015.7 |
| 20260507032022 | 62 | 360 | 6.1 | 11.3 | 0.00 | 0.00 | 0.00 | 81 | 1015.6 |
| 20260507031928 | 62 | 360 | 6.1 | 11.3 | 0.00 | 0.00 | 0.00 | 82 | 1015.6 |
| 20260507031829 | 62 | 360 | 6.1 | 11.3 | 0.00 | 0.00 | 0.00 | 82 | 1015.6 |
| 20260507031728 | 62 | 360 | 6.1 | 11.3 | 0.00 | 0.00 | 0.00 | 82 | 1015.5 |
| 20260507031649 | 62 | 360 | 6.1 | 11.3 | 0.00 | 0.00 | 0.00 | 82 | 1015.5 |
| 20260507031527 | 62 | 360 | 5.2 | 10.4 | 0.00 | 0.00 | 0.00 | 82 | 1015.5 |
| 20260507031429 | 62 | 360 | 4.3 | 9.6 | 0.00 | 0.00 | 0.00 | 82 | 1015.5 |
| 20260507031329 | 62 | 360 | 4.3 | 9.6 | 0.00 | 0.00 | 0.00 | 82 | 1015.5 |
| 20260507031235 | 62 | 360 | 5.2 | 9.6 | 0.00 | 0.00 | 0.00 | 82 | 1015.5 |
| 20260507031116 | 62 | 360 | 5.2 | 9.6 | 0.00 | 0.00 | 0.00 | 82 | 1015.5 |
| 20260507031036 | 62 | 360 | 5.2 | 9.6 | 0.00 | 0.00 | 0.00 | 82 | 1015.5 |
| 20260507030956 | 62 | 360 | 5.2 | 9.6 | 0.00 | 0.00 | 0.00 | 82 | 1015.6 |
| 20260507030816 | 62 | 360 | 4.3 | 9.6 | 0.00 | 0.00 | 0.00 | 81 | 1015.6 |
| 20260507030736 | 62 | 360 | 5.2 | 9.6 | 0.00 | 0.00 | 0.00 | 82 | 1015.6 |
| 20260507030616 | 62 | 360 | 4.3 | 9.6 | 0.00 | 0.00 | 0.00 | 82 | 1015.8 |
| 20260507030521 | 62 | 360 | 5.2 | 9.6 | 0.00 | 0.00 | 0.00 | 82 | 1015.8 |
| 20260507030422 | 62 | 360 | 5.2 | 9.6 | 0.00 | 0.00 | 0.00 | 82 | 1015.8 |
| 20260507030342 | 62 | 360 | 5.2 | 9.6 | 0.00 | 0.00 | 0.00 | 82 | 1015.8 |
| 20260507030218 | 62 | 360 | 5.2 | 8.7 | 0.00 | 0.00 | 0.00 | 82 | 1015.9 |
| 20260507030119 | 62 | 360 | 5.2 | 8.7 | 0.00 | 0.00 | 0.00 | 82 | 1015.9 |
| 20260507030019 | 62 | 360 | 5.2 | 8.7 | 0.00 | 0.00 | 0.00 | 82 | 1016.0 |
| 20260507025919 | 62 | 360 | 5.2 | 8.7 | 0.00 | 0.00 | 0.00 | 82 | 1015.8 |
| 20260507025844 | 62 | 360 | 5.2 | 8.7 | 0.00 | 0.00 | 0.00 | 82 | 1015.9 |
| 20260507025723 | 62 | 360 | 5.2 | 8.7 | 0.00 | 0.00 | 0.00 | 82 | 1015.9 |
| 20260507025623 | 62 | 360 | 4.3 | 8.7 | 0.00 | 0.00 | 0.00 | 82 | 1015.8 |
| 20260507025543 | 62 | 360 | 4.3 | 8.7 | 0.00 | 0.00 | 0.00 | 82 | 1015.7 |
| 20260507025423 | 62 | 360 | 4.3 | 9.6 | 0.00 | 0.00 | 0.00 | 82 | 1015.6 |
| 20260507025324 | 62 | 360 | 3.5 | 9.6 | 0.00 | 0.00 | 0.00 | 82 | 1015.6 |
| 20260507025223 | 62 | 360 | 3.5 | 9.6 | 0.00 | 0.00 | 0.00 | 82 | 1015.5 |
| 20260507025145 | 62 | 360 | 3.5 | 11.3 | 0.00 | 0.00 | 0.00 | 82 | 1015.6 |
| 20260507025028 | 62 | 360 | 4.3 | 11.3 | 0.00 | 0.00 | 0.00 | 82 | 1015.6 |
| 20260507024929 | 62 | 360 | 5.2 | 11.3 | 0.00 | 0.00 | 0.00 | 82 | 1015.6 |
| 20260507024829 | 62 | 360 | 5.2 | 11.3 | 0.00 | 0.00 | 0.00 | 82 | 1015.6 |
| 20260507024730 | 62 | 360 | 6.1 | 11.3 | 0.00 | 0.00 | 0.00 | 82 | 1015.4 |
| 20260507024630 | 62 | 360 | 6.1 | 11.3 | 0.00 | 0.00 | 0.00 | 81 | 1015.4 |
| 20260507024530 | 62 | 360 | 5.2 | 11.3 | 0.00 | 0.00 | 0.00 | 81 | 1015.3 |
| 20260507024431 | 62 | 360 | 5.2 | 11.3 | 0.00 | 0.00 | 0.00 | 81 | 1015.3 |
| 20260507024316 | 62 | 360 | 5.2 | 10.4 | 0.00 | 0.00 | 0.00 | 81 | 1015.2 |
| 20260507024237 | 62 | 360 | 5.2 | 9.6 | 0.00 | 0.00 | 0.00 | 81 | 1015.2 |
| 20260507024135 | 62 | 360 | 5.2 | 9.6 | 0.00 | 0.00 | 0.00 | 82 | 1015.2 |
| 20260507024016 | 62 | 360 | 4.3 | 9.6 | 0.00 | 0.00 | 0.00 | 81 | 1015.1 |
| 20260507023937 | 62 | 360 | 4.3 | 9.6 | 0.00 | 0.00 | 0.00 | 81 | 1015.2 |
| 20260507023816 | 62 | 360 | 4.3 | 9.6 | 0.00 | 0.00 | 0.00 | 81 | 1015.3 |
| 20260507023717 | 62 | 360 | 4.3 | 9.6 | 0.00 | 0.00 | 0.00 | 81 | 1015.3 |
| 20260507023621 | 62 | 360 | 4.3 | 10.4 | 0.00 | 0.00 | 0.00 | 81 | 1015.3 |
| 20260507023522 | 62 | 360 | 4.3 | 10.4 | 0.00 | 0.00 | 0.00 | 81 | 1015.5 |
| 20260507023442 | 63 | 360 | 5.2 | 10.4 | 0.00 | 0.00 | 0.00 | 81 | 1015.4 |
| 20260507023342 | 63 | 360 | 5.2 | 10.4 | 0.00 | 0.00 | 0.00 | 81 | 1015.4 |
| 20260507023221 | 63 | 360 | 5.2 | 10.4 | 0.00 | 0.00 | 0.00 | 81 | 1015.3 |
| 20260507023122 | 63 | 360 | 5.2 | 10.4 | 0.00 | 0.00 | 0.00 | 81 | 1015.3 |
| 20260507023023 | 62 | 360 | 5.2 | 10.4 | 0.00 | 0.00 | 0.00 | 81 | 1015.2 |
| 20260507022943 | 63 | 360 | 5.2 | 10.4 | 0.00 | 0.00 | 0.00 | 81 | 1015.1 |
| 20260507022827 | 63 | 360 | 5.2 | 10.4 | 0.00 | 0.00 | 0.00 | 81 | 1015.1 |
| 20260507022729 | 63 | 360 | 5.2 | 12.2 | 0.00 | 0.00 | 0.00 | 81 | 1015.1 |
| 20260507022627 | 63 | 360 | 6.1 | 12.2 | 0.00 | 0.00 | 0.00 | 81 | 1015.1 |
| 20260507022548 | 63 | 360 | 6.1 | 12.2 | 0.00 | 0.00 | 0.00 | 81 | 1015.1 |
| 20260507022427 | 63 | 360 | 6.1 | 12.2 | 0.00 | 0.00 | 0.00 | 81 | 1015.1 |
| 20260507022328 | 63 | 360 | 7.0 | 12.2 | 0.00 | 0.00 | 0.00 | 81 | 1015.0 |
| 20260507022228 | 63 | 360 | 7.0 | 12.2 | 0.00 | 0.00 | 0.00 | 81 | 1015.0 |
| 20260507022153 | 63 | 360 | 7.0 | 12.2 | 0.00 | 0.00 | 0.00 | 81 | 1015.0 |
| 20260507022033 | 63 | 360 | 7.0 | 12.2 | 0.00 | 0.00 | 0.00 | 81 | 1015.1 |
| 20260507021933 | 63 | 360 | 6.1 | 11.3 | 0.00 | 0.00 | 0.00 | 81 | 1015.1 |
| 20260507021854 | 63 | 360 | 6.1 | 10.4 | 0.00 | 0.00 | 0.00 | 81 | 1015.1 |
| 20260507021732 | 63 | 360 | 6.1 | 10.4 | 0.00 | 0.00 | 0.00 | 81 | 1015.1 |
| 20260507021653 | 63 | 360 | 6.1 | 9.6 | 0.00 | 0.00 | 0.00 | 81 | 1015.0 |
| 20260507021533 | 63 | 360 | 6.1 | 9.6 | 0.00 | 0.00 | 0.00 | 81 | 1015.0 |
| 20260507021417 | 63 | 360 | 6.1 | 9.6 | 0.00 | 0.00 | 0.00 | 81 | 1014.9 |
| 20260507021317 | 63 | 360 | 5.2 | 9.6 | 0.00 | 0.00 | 0.00 | 81 | 1014.9 |
| 20260507021239 | 63 | 360 | 5.2 | 9.6 | 0.00 | 0.00 | 0.00 | 81 | 1014.7 |
| 20260507021138 | 63 | 360 | 5.2 | 9.6 | 0.00 | 0.00 | 0.00 | 81 | 1014.8 |
| 20260507021017 | 63 | 360 | 5.2 | 9.6 | 0.00 | 0.00 | 0.00 | 81 | 1014.8 |
| 20260507020918 | 63 | 360 | 5.2 | 9.6 | 0.00 | 0.00 | 0.00 | 81 | 1014.8 |
| 20260507020818 | 63 | 360 | 6.1 | 9.6 | 0.00 | 0.00 | 0.00 | 81 | 1014.8 |
| 20260507020740 | 63 | 360 | 6.1 | 9.6 | 0.00 | 0.00 | 0.00 | 81 | 1014.9 |
| 20260507020638 | 63 | 360 | 5.2 | 9.6 | 0.00 | 0.00 | 0.00 | 81 | 1014.8 |
| 20260507020522 | 63 | 360 | 4.3 | 9.6 | 0.00 | 0.00 | 0.00 | 81 | 1014.8 |
| 20260507020442 | 63 | 360 | 4.3 | 9.6 | 0.00 | 0.00 | 0.00 | 81 | 1014.8 |
| 20260507020322 | 63 | 360 | 4.3 | 9.6 | 0.00 | 0.00 | 0.00 | 81 | 1014.8 |
| 20260507020222 | 63 | 360 | 4.3 | 9.6 | 0.00 | 0.00 | 0.00 | 81 | 1014.9 |
| 20260507020142 | 63 | 360 | 5.2 | 9.6 | 0.00 | 0.00 | 0.00 | 81 | 1014.8 |
| 20260507020022 | 63 | 360 | 5.2 | 9.6 | 0.00 | 0.00 | 0.00 | 81 | 1014.7 |
| 20260507015922 | 63 | 360 | 6.1 | 9.6 | 0.00 | 0.00 | 0.00 | 81 | 1014.7 |
| 20260507015827 | 63 | 360 | 6.1 | 9.6 | 0.00 | 0.00 | 0.00 | 80 | 1014.7 |
| 20260507015729 | 63 | 360 | 5.2 | 9.6 | 0.00 | 0.00 | 0.00 | 80 | 1014.7 |
| 20260507015649 | 63 | 360 | 5.2 | 9.6 | 0.00 | 0.00 | 0.00 | 80 | 1014.7 |
| 20260507015548 | 63 | 360 | 4.3 | 9.6 | 0.00 | 0.00 | 0.00 | 80 | 1014.7 |
| 20260507015427 | 63 | 360 | 3.5 | 9.6 | 0.00 | 0.00 | 0.00 | 80 | 1014.8 |
| 20260507015326 | 63 | 360 | 3.5 | 7.8 | 0.00 | 0.00 | 0.00 | 80 | 1014.8 |
| 20260507015228 | 63 | 360 | 3.5 | 8.7 | 0.00 | 0.00 | 0.00 | 80 | 1014.7 |
| 20260507015127 | 63 | 360 | 2.6 | 8.7 | 0.00 | 0.00 | 0.00 | 80 | 1014.6 |
| 20260507015032 | 63 | 360 | 2.6 | 8.7 | 0.00 | 0.00 | 0.00 | 80 | 1014.6 |
| 20260507014933 | 63 | 360 | 3.5 | 8.7 | 0.00 | 0.00 | 0.00 | 80 | 1014.6 |
| 20260507014832 | 63 | 360 | 3.5 | 8.7 | 0.00 | 0.00 | 0.00 | 80 | 1014.6 |
| 20260507014753 | 63 | 360 | 3.5 | 8.7 | 0.00 | 0.00 | 0.00 | 80 | 1014.6 |
| 20260507014653 | 63 | 360 | 4.3 | 8.7 | 0.00 | 0.00 | 0.00 | 80 | 1014.7 |
| 20260507014531 | 63 | 360 | 4.3 | 8.7 | 0.00 | 0.00 | 0.00 | 80 | 1014.6 |
| 20260507014453 | 63 | 360 | 4.3 | 8.7 | 0.00 | 0.00 | 0.00 | 80 | 1014.6 |
| 20260507014331 | 63 | 360 | 4.3 | 8.7 | 0.00 | 0.00 | 0.00 | 80 | 1014.6 |
| 20260507014252 | 63 | 360 | 4.3 | 8.7 | 0.00 | 0.00 | 0.00 | 80 | 1014.6 |
| 20260507014136 | 63 | 360 | 4.3 | 8.7 | 0.00 | 0.00 | 0.00 | 80 | 1014.6 |
| 20260507014056 | 63 | 360 | 4.3 | 8.7 | 0.00 | 0.00 | 0.00 | 80 | 1014.5 |
| 20260507013915 | 63 | 360 | 5.2 | 8.7 | 0.00 | 0.00 | 0.00 | 80 | 1014.5 |
| 20260507013835 | 63 | 360 | 5.2 | 8.7 | 0.00 | 0.00 | 0.00 | 80 | 1014.5 |
| 20260507013716 | 63 | 360 | 5.2 | 8.7 | 0.00 | 0.00 | 0.00 | 80 | 1014.4 |
| 20260507013616 | 63 | 360 | 6.1 | 8.7 | 0.00 | 0.00 | 0.00 | 80 | 1014.3 |
| 20260507013516 | 63 | 360 | 5.2 | 9.6 | 0.00 | 0.00 | 0.00 | 80 | 1014.2 |
| 20260507013421 | 63 | 360 | 5.2 | 10.4 | 0.00 | 0.00 | 0.00 | 80 | 1014.2 |
| 20260507013322 | 63 | 360 | 4.3 | 10.4 | 0.00 | 0.00 | 0.00 | 80 | 1014.2 |
| 20260507013223 | 63 | 360 | 4.3 | 10.4 | 0.00 | 0.00 | 0.00 | 80 | 1014.1 |
| 20260507013123 | 63 | 360 | 4.3 | 10.4 | 0.00 | 0.00 | 0.00 | 80 | 1014.2 |
| 20260507013024 | 63 | 360 | 4.3 | 10.4 | 0.00 | 0.00 | 0.00 | 80 | 1014.2 |
| 20260507012924 | 63 | 360 | 5.2 | 10.4 | 0.00 | 0.00 | 0.00 | 80 | 1014.2 |
| 20260507012844 | 63 | 360 | 5.2 | 10.4 | 0.00 | 0.00 | 0.00 | 80 | 1014.3 |
| 20260507012730 | 63 | 360 | 6.1 | 10.4 | 0.00 | 0.00 | 0.00 | 80 | 1014.3 |
| 20260507012650 | 63 | 360 | 6.1 | 10.4 | 0.00 | 0.00 | 0.00 | 80 | 1014.3 |
| 20260507012530 | 63 | 360 | 6.1 | 10.4 | 0.00 | 0.00 | 0.00 | 80 | 1014.3 |
| 20260507012450 | 63 | 360 | 6.1 | 10.4 | 0.00 | 0.00 | 0.00 | 80 | 1014.3 |
| 20260507012328 | 63 | 360 | 5.2 | 10.4 | 0.00 | 0.00 | 0.00 | 80 | 1014.3 |
| 20260507012226 | 63 | 360 | 5.2 | 9.6 | 0.00 | 0.00 | 0.00 | 80 | 1014.2 |
| 20260507012147 | 63 | 360 | 5.2 | 12.2 | 0.00 | 0.00 | 0.00 | 80 | 1014.2 |
| 20260507012026 | 63 | 360 | 5.2 | 12.2 | 0.00 | 0.00 | 0.00 | 80 | 1014.0 |
| 20260507011927 | 63 | 360 | 5.2 | 12.2 | 0.00 | 0.00 | 0.00 | 80 | 1014.0 |
| 20260507011832 | 63 | 360 | 5.2 | 12.2 | 0.00 | 0.00 | 0.00 | 80 | 1014.1 |
| 20260507011753 | 63 | 360 | 5.2 | 12.2 | 0.00 | 0.00 | 0.00 | 80 | 1014.1 |
| 20260507011634 | 63 | 360 | 5.2 | 12.2 | 0.00 | 0.00 | 0.00 | 80 | 1014.1 |
| 20260507011535 | 63 | 360 | 5.2 | 12.2 | 0.00 | 0.00 | 0.00 | 80 | 1014.1 |
| 20260507011415 | 63 | 360 | 6.1 | 12.2 | 0.00 | 0.00 | 0.00 | 80 | 1014.1 |
| 20260507011336 | 63 | 360 | 6.1 | 12.2 | 0.00 | 0.00 | 0.00 | 80 | 1014.1 |
| 20260507011119 | 63 | 360 | 7.0 | 11.3 | 0.00 | 0.00 | 0.00 | 80 | 1014.1 |
| 20260507011020 | 63 | 360 | 6.1 | 11.3 | 0.00 | 0.00 | 0.00 | 80 | 1014.2 |
| 20260507010920 | 63 | 360 | 6.1 | 12.2 | 0.00 | 0.00 | 0.00 | 80 | 1014.2 |
| 20260507010820 | 63 | 360 | 6.1 | 12.2 | 0.00 | 0.00 | 0.00 | 80 | 1014.2 |
| 20260507010721 | 63 | 360 | 7.0 | 12.2 | 0.00 | 0.00 | 0.00 | 80 | 1014.3 |
| 20260507010620 | 63 | 360 | 7.0 | 13.0 | 0.00 | 0.00 | 0.00 | 80 | 1014.0 |
| 20260507010521 | 63 | 360 | 7.0 | 13.0 | 0.00 | 0.00 | 0.00 | 80 | 1013.9 |
| 20260507010424 | 63 | 360 | 7.0 | 13.0 | 0.00 | 0.00 | 0.00 | 80 | 1013.8 |
| 20260507010325 | 63 | 360 | 7.0 | 13.0 | 0.00 | 0.00 | 0.00 | 80 | 1013.7 |
| 20260507010246 | 63 | 360 | 7.0 | 13.0 | 0.00 | 0.00 | 0.00 | 80 | 1013.8 |
| 20260507010125 | 63 | 360 | 7.0 | 13.0 | 0.00 | 0.00 | 0.00 | 80 | 1013.9 |
| 20260507010026 | 63 | 31 | 7.0 | 13.0 | 0.00 | 0.00 | 0.00 | 80 | 1013.9 |
| 20260507005925 | 63 | 360 | 6.1 | 13.0 | 0.00 | 0.00 | 0.00 | 80 | 1013.9 |
| 20260507005826 | 63 | 360 | 7.0 | 13.0 | 0.00 | 0.00 | 0.00 | 80 | 1014.0 |
| 20260507005731 | 63 | 360 | 7.0 | 13.0 | 0.00 | 0.00 | 0.00 | 80 | 1014.0 |
| 20260507005631 | 63 | 360 | 6.1 | 10.4 | 0.00 | 0.00 | 0.00 | 80 | 1014.0 |
| 20260507005531 | 63 | 360 | 6.1 | 10.4 | 0.00 | 0.00 | 0.00 | 80 | 1014.0 |
| 20260507005431 | 63 | 360 | 6.1 | 10.4 | 0.00 | 0.00 | 0.00 | 80 | 1014.1 |
| 20260507005332 | 63 | 360 | 5.2 | 10.4 | 0.00 | 0.00 | 0.00 | 80 | 1014.1 |
| 20260507005233 | 63 | 360 | 5.2 | 10.4 | 0.00 | 0.00 | 0.00 | 80 | 1014.1 |
| 20260507005117 | 63 | 360 | 5.2 | 10.4 | 0.00 | 0.00 | 0.00 | 80 | 1013.9 |
| 20260507005037 | 63 | 360 | 5.2 | 9.6 | 0.00 | 0.00 | 0.00 | 80 | 1013.8 |
| 20260507004936 | 63 | 360 | 5.2 | 9.6 | 0.00 | 0.00 | 0.00 | 80 | 1013.8 |
| 20260507004856 | 63 | 360 | 6.1 | 10.4 | 0.00 | 0.00 | 0.00 | 80 | 1013.9 |
| 20260507004735 | 63 | 360 | 6.1 | 10.4 | 0.00 | 0.00 | 0.00 | 80 | 1013.9 |
| 20260507004616 | 63 | 360 | 5.2 | 12.2 | 0.00 | 0.00 | 0.00 | 80 | 1013.8 |
| 20260507004516 | 63 | 360 | 5.2 | 12.2 | 0.00 | 0.00 | 0.00 | 80 | 1013.9 |
| 20260507004421 | 63 | 360 | 5.2 | 12.2 | 0.00 | 0.00 | 0.00 | 80 | 1013.8 |
| 20260507004322 | 63 | 360 | 6.1 | 12.2 | 0.00 | 0.00 | 0.00 | 80 | 1013.8 |
| 20260507004221 | 63 | 360 | 6.1 | 12.2 | 0.00 | 0.00 | 0.00 | 80 | 1013.8 |
| 20260507004122 | 63 | 360 | 6.1 | 12.2 | 0.00 | 0.00 | 0.00 | 80 | 1013.9 |
| 20260507004025 | 63 | 360 | 6.1 | 12.2 | 0.00 | 0.00 | 0.00 | 80 | 1013.9 |
| 20260507003945 | 63 | 360 | 6.1 | 12.2 | 0.00 | 0.00 | 0.00 | 80 | 1013.8 |
| 20260507003824 | 63 | 360 | 6.1 | 12.2 | 0.00 | 0.00 | 0.00 | 80 | 1013.7 |
| 20260507003745 | 63 | 360 | 5.2 | 12.2 | 0.00 | 0.00 | 0.00 | 80 | 1013.7 |
| 20260507003629 | 63 | 360 | 6.1 | 12.2 | 0.00 | 0.00 | 0.00 | 80 | 1013.7 |
| 20260507003528 | 63 | 360 | 6.1 | 12.2 | 0.00 | 0.00 | 0.00 | 79 | 1013.4 |
| 20260507003449 | 63 | 360 | 6.1 | 14.8 | 0.00 | 0.00 | 0.00 | 79 | 1013.3 |
| 20260507003328 | 63 | 360 | 7.0 | 14.8 | 0.00 | 0.00 | 0.00 | 79 | 1013.3 |
| 20260507003249 | 63 | 360 | 7.0 | 14.8 | 0.00 | 0.00 | 0.00 | 79 | 1013.3 |
| 20260507003126 | 63 | 360 | 7.0 | 14.8 | 0.00 | 0.00 | 0.00 | 79 | 1013.5 |
| 20260507003028 | 63 | 360 | 7.0 | 14.8 | 0.00 | 0.00 | 0.00 | 79 | 1013.5 |
| 20260507002928 | 63 | 360 | 7.8 | 14.8 | 0.00 | 0.00 | 0.00 | 79 | 1013.7 |
| 20260507002828 | 63 | 360 | 7.8 | 14.8 | 0.00 | 0.00 | 0.00 | 79 | 1013.7 |
| 20260507002733 | 63 | 360 | 7.0 | 14.8 | 0.00 | 0.00 | 0.00 | 79 | 1013.8 |
| 20260507002633 | 63 | 360 | 6.1 | 14.8 | 0.00 | 0.00 | 0.00 | 79 | 1013.8 |
| 20260507002532 | 63 | 360 | 6.1 | 13.9 | 0.00 | 0.00 | 0.00 | 79 | 1013.8 |
| 20260507002433 | 63 | 360 | 6.1 | 13.9 | 0.00 | 0.00 | 0.00 | 79 | 1013.6 |
| 20260507002333 | 63 | 360 | 6.1 | 13.9 | 0.00 | 0.00 | 0.00 | 79 | 1013.7 |
| 20260507002234 | 63 | 360 | 6.1 | 13.9 | 0.00 | 0.00 | 0.00 | 79 | 1013.6 |
| 20260507002118 | 63 | 360 | 7.0 | 13.9 | 0.00 | 0.00 | 0.00 | 79 | 1013.5 |
| 20260507002018 | 63 | 360 | 7.0 | 13.9 | 0.00 | 0.00 | 0.00 | 79 | 1013.4 |
| 20260507001919 | 63 | 360 | 6.1 | 13.9 | 0.00 | 0.00 | 0.00 | 79 | 1013.4 |
| 20260507001819 | 63 | 360 | 6.1 | 13.9 | 0.00 | 0.00 | 0.00 | 79 | 1013.5 |
| 20260507001719 | 63 | 360 | 7.0 | 13.9 | 0.00 | 0.00 | 0.00 | 79 | 1013.5 |
| 20260507001620 | 63 | 360 | 7.8 | 13.9 | 0.00 | 0.00 | 0.00 | 79 | 1013.7 |
| 20260507001541 | 63 | 360 | 7.8 | 13.9 | 0.00 | 0.00 | 0.00 | 79 | 1013.7 |
| 20260507001424 | 63 | 360 | 8.7 | 13.9 | 0.00 | 0.00 | 0.00 | 79 | 1013.7 |
| 20260507001324 | 63 | 360 | 8.7 | 13.9 | 0.00 | 0.00 | 0.00 | 79 | 1013.7 |
| 20260507001224 | 63 | 360 | 8.7 | 13.9 | 0.00 | 0.00 | 0.00 | 79 | 1013.6 |
| 20260507001124 | 63 | 360 | 8.7 | 13.9 | 0.00 | 0.00 | 0.00 | 79 | 1013.5 |
| 20260507001044 | 63 | 360 | 7.0 | 13.9 | 0.00 | 0.00 | 0.00 | 79 | 1013.5 |
| 20260507000923 | 63 | 360 | 7.0 | 13.0 | 0.00 | 0.00 | 0.00 | 80 | 1013.5 |
| 20260507000825 | 63 | 360 | 7.0 | 13.0 | 0.00 | 0.00 | 0.00 | 80 | 1013.5 |
| 20260507000728 | 63 | 360 | 7.0 | 13.0 | 0.00 | 0.00 | 0.00 | 80 | 1013.5 |
| 20260507000629 | 63 | 360 | 7.0 | 13.9 | 0.00 | 0.00 | 0.00 | 80 | 1013.4 |
| 20260507000549 | 63 | 360 | 7.8 | 14.8 | 0.00 | 0.00 | 0.00 | 80 | 1013.4 |
| 20260507000429 | 63 | 360 | 7.8 | 14.8 | 0.00 | 0.00 | 0.00 | 79 | 1013.3 |
| 20260507000330 | 63 | 360 | 7.8 | 14.8 | 0.00 | 0.00 | 0.00 | 79 | 1013.3 |
| 20260507000230 | 63 | 360 | 8.7 | 14.8 | 0.00 | 0.00 | 0.00 | 79 | 1013.4 |
| 20260507000129 | 63 | 360 | 9.6 | 14.8 | 0.00 | 0.00 | 0.00 | 79 | 1013.4 |
| 20260507000050 | 63 | 360 | 8.7 | 14.8 | 0.00 | 0.00 | 0.00 | 79 | 1013.5 |
| 20260506235934 | 63 | 360 | 8.7 | 14.8 | 0.00 | 0.00 | 0.00 | 79 | 1013.7 |
| 20260506235834 | 63 | 360 | 8.7 | 14.8 | 0.00 | 0.00 | 0.00 | 79 | 1013.7 |
| 20260506235736 | 63 | 360 | 8.7 | 14.8 | 0.00 | 0.00 | 0.00 | 79 | 1013.5 |
| 20260506235616 | 63 | 360 | 7.8 | 14.8 | 0.00 | 0.00 | 0.00 | 79 | 1013.7 |
| 20260506235516 | 63 | 360 | 7.8 | 14.8 | 0.00 | 0.00 | 0.00 | 79 | 1013.6 |
| 20260506235437 | 63 | 360 | 7.0 | 14.8 | 0.00 | 0.00 | 0.00 | 79 | 1013.5 |
| 20260506235336 | 63 | 360 | 7.0 | 14.8 | 0.00 | 0.00 | 0.00 | 79 | 1013.5 |
| 20260506235220 | 63 | 360 | 7.0 | 14.8 | 0.00 | 0.00 | 0.00 | 79 | 1013.4 |
| 20260506235120 | 63 | 360 | 7.0 | 14.8 | 0.00 | 0.00 | 0.00 | 79 | 1013.4 |
| 20260506235021 | 63 | 360 | 7.0 | 14.8 | 0.00 | 0.00 | 0.00 | 79 | 1013.5 |
| 20260506234921 | 63 | 360 | 7.8 | 14.8 | 0.00 | 0.00 | 0.00 | 79 | 1013.5 |
| 20260506234822 | 63 | 360 | 7.8 | 14.8 | 0.00 | 0.00 | 0.00 | 79 | 1013.4 |
| 20260506234723 | 63 | 360 | 8.7 | 14.8 | 0.00 | 0.00 | 0.00 | 79 | 1013.5 |
| 20260506234643 | 63 | 360 | 8.7 | 14.8 | 0.00 | 0.00 | 0.00 | 79 | 1013.4 |
| 20260506234542 | 63 | 360 | 7.8 | 13.9 | 0.00 | 0.00 | 0.00 | 79 | 1013.3 |
| 20260506234426 | 63 | 360 | 7.8 | 13.9 | 0.00 | 0.00 | 0.00 | 79 | 1013.4 |
| 20260506234326 | 63 | 360 | 7.8 | 13.9 | 0.00 | 0.00 | 0.00 | 79 | 1013.5 |
| 20260506234227 | 63 | 360 | 7.8 | 13.9 | 0.00 | 0.00 | 0.00 | 79 | 1013.5 |
| 20260506234128 | 63 | 360 | 7.8 | 13.9 | 0.00 | 0.00 | 0.00 | 79 | 1013.5 |
| 20260506234048 | 63 | 360 | 7.8 | 13.9 | 0.00 | 0.00 | 0.00 | 79 | 1013.5 |
| 20260506233927 | 63 | 360 | 7.8 | 13.9 | 0.00 | 0.00 | 0.00 | 79 | 1013.5 |
| 20260506233827 | 63 | 315 | 7.0 | 13.9 | 0.00 | 0.00 | 0.00 | 79 | 1013.5 |
| 20260506233731 | 63 | 360 | 6.1 | 13.9 | 0.00 | 0.00 | 0.00 | 79 | 1013.5 |
| 20260506233632 | 63 | 360 | 6.1 | 13.9 | 0.00 | 0.00 | 0.00 | 79 | 1013.4 |
| 20260506233533 | 63 | 360 | 7.0 | 13.9 | 0.00 | 0.00 | 0.00 | 79 | 1013.5 |
| 20260506233454 | 63 | 360 | 6.1 | 13.9 | 0.00 | 0.00 | 0.00 | 80 | 1013.4 |
| 20260506233334 | 63 | 360 | 6.1 | 13.9 | 0.00 | 0.00 | 0.00 | 79 | 1013.3 |
| 20260506233235 | 63 | 360 | 7.0 | 13.9 | 0.00 | 0.00 | 0.00 | 79 | 1013.3 |
| 20260506233135 | 63 | 360 | 7.0 | 13.9 | 0.00 | 0.00 | 0.00 | 80 | 1013.3 |
| 20260506233020 | 63 | 360 | 6.1 | 13.9 | 0.00 | 0.00 | 0.00 | 79 | 1013.2 |
| 20260506232920 | 63 | 360 | 7.0 | 13.9 | 0.00 | 0.00 | 0.00 | 79 | 1013.1 |
| 20260506232822 | 63 | 360 | 7.8 | 13.9 | 0.00 | 0.00 | 0.00 | 79 | 1013.1 |
| 20260506232721 | 63 | 360 | 7.8 | 14.8 | 0.00 | 0.00 | 0.00 | 79 | 1013.2 |
| 20260506232642 | 63 | 360 | 7.8 | 14.8 | 0.00 | 0.00 | 0.00 | 79 | 1013.2 |
| 20260506232521 | 63 | 360 | 7.8 | 14.8 | 0.00 | 0.00 | 0.00 | 79 | 1013.2 |
| 20260506232443 | 63 | 360 | 8.7 | 14.8 | 0.00 | 0.00 | 0.00 | 79 | 1013.2 |
| 20260506232320 | 63 | 360 | 7.8 | 14.8 | 0.00 | 0.00 | 0.00 | 79 | 1013.2 |
| 20260506232225 | 63 | 360 | 7.8 | 14.8 | 0.00 | 0.00 | 0.00 | 79 | 1013.2 |
| 20260506232126 | 63 | 360 | 7.8 | 14.8 | 0.00 | 0.00 | 0.00 | 79 | 1013.3 |
| 20260506232047 | 63 | 360 | 8.7 | 14.8 | 0.00 | 0.00 | 0.00 | 79 | 1013.2 |
| 20260506231947 | 63 | 360 | 8.7 | 13.0 | 0.00 | 0.00 | 0.00 | 79 | 1013.2 |
| 20260506231826 | 63 | 360 | 7.8 | 13.0 | 0.00 | 0.00 | 0.00 | 79 | 1013.3 |
| 20260506231726 | 63 | 360 | 8.7 | 13.0 | 0.00 | 0.00 | 0.00 | 79 | 1013.2 |
| 20260506231646 | 63 | 360 | 8.7 | 13.0 | 0.00 | 0.00 | 0.00 | 79 | 1013.2 |
| 20260506231526 | 63 | 360 | 8.7 | 13.0 | 0.00 | 0.00 | 0.00 | 79 | 1013.2 |
| 20260506231450 | 63 | 360 | 7.8 | 13.0 | 0.00 | 0.00 | 0.00 | 79 | 1013.2 |
| 20260506231330 | 63 | 360 | 7.8 | 13.0 | 0.00 | 0.00 | 0.00 | 79 | 1013.2 |
| 20260506231229 | 63 | 360 | 7.0 | 13.0 | 0.00 | 0.00 | 0.00 | 79 | 1013.2 |
| 20260506231130 | 63 | 360 | 7.0 | 14.8 | 0.00 | 0.00 | 0.00 | 79 | 1013.3 |
| 20260506231030 | 63 | 360 | 6.1 | 14.8 | 0.00 | 0.00 | 0.00 | 79 | 1013.2 |
| 20260506230931 | 63 | 360 | 7.0 | 14.8 | 0.00 | 0.00 | 0.00 | 79 | 1013.2 |
| 20260506230832 | 63 | 360 | 7.8 | 14.8 | 0.00 | 0.00 | 0.00 | 79 | 1013.2 |
| 20260506230756 | 63 | 360 | 7.8 | 14.8 | 0.00 | 0.00 | 0.00 | 78 | 1013.2 |
| 20260506230635 | 63 | 360 | 7.8 | 14.8 | 0.00 | 0.00 | 0.00 | 78 | 1013.2 |
| 20260506230516 | 63 | 360 | 7.8 | 14.8 | 0.00 | 0.00 | 0.00 | 78 | 1013.3 |
| 20260506230417 | 63 | 360 | 7.8 | 14.8 | 0.00 | 0.00 | 0.00 | 78 | 1013.3 |
| 20260506230337 | 63 | 360 | 7.0 | 14.8 | 0.00 | 0.00 | 0.00 | 78 | 1013.3 |
| 20260506230237 | 63 | 360 | 7.0 | 14.8 | 0.00 | 0.00 | 0.00 | 79 | 1013.3 |
| 20260506230138 | 63 | 360 | 7.0 | 14.8 | 0.00 | 0.00 | 0.00 | 79 | 1013.3 |
| 20260506230017 | 63 | 360 | 7.0 | 14.8 | 0.00 | 0.00 | 0.00 | 79 | 1013.3 |
| 20260506225921 | 63 | 360 | 7.0 | 14.8 | 0.00 | 0.00 | 0.00 | 79 | 1013.2 |
| 20260506225822 | 63 | 360 | 7.8 | 14.8 | 0.00 | 0.00 | 0.00 | 79 | 1013.3 |
| 20260506225721 | 63 | 360 | 7.8 | 14.8 | 0.00 | 0.00 | 0.00 | 79 | 1013.3 |
| 20260506225643 | 63 | 360 | 8.7 | 14.8 | 0.00 | 0.00 | 0.00 | 79 | 1013.3 |
| 20260506225522 | 63 | 360 | 9.6 | 14.8 | 0.00 | 0.00 | 0.00 | 78 | 1013.3 |
| 20260506225423 | 63 | 360 | 9.6 | 13.9 | 0.00 | 0.00 | 0.00 | 78 | 1013.4 |
| 20260506225323 | 63 | 360 | 8.7 | 13.9 | 0.00 | 0.00 | 0.00 | 78 | 1013.4 |
| 20260506225244 | 63 | 360 | 8.7 | 13.9 | 0.00 | 0.00 | 0.00 | 78 | 1013.3 |
| 20260506225127 | 63 | 360 | 7.8 | 13.9 | 0.00 | 0.00 | 0.00 | 78 | 1013.3 |
| 20260506225028 | 63 | 360 | 7.8 | 13.9 | 0.00 | 0.00 | 0.00 | 78 | 1013.4 |
| 20260506224928 | 63 | 360 | 7.8 | 13.9 | 0.00 | 0.00 | 0.00 | 78 | 1013.3 |
| 20260506224847 | 63 | 360 | 8.7 | 13.9 | 0.00 | 0.00 | 0.00 | 78 | 1013.2 |
| 20260506224748 | 63 | 360 | 8.7 | 14.8 | 0.00 | 0.00 | 0.00 | 78 | 1013.2 |
| 20260506224627 | 63 | 360 | 8.7 | 14.8 | 0.00 | 0.00 | 0.00 | 78 | 1013.2 |
| 20260506224547 | 64 | 360 | 7.8 | 14.8 | 0.00 | 0.00 | 0.00 | 78 | 1013.2 |
| 20260506224427 | 63 | 360 | 7.0 | 14.8 | 0.00 | 0.00 | 0.00 | 78 | 1013.2 |
| 20260506224332 | 63 | 360 | 7.8 | 14.8 | 0.00 | 0.00 | 0.00 | 78 | 1013.1 |
| 20260506224252 | 63 | 360 | 8.7 | 14.8 | 0.00 | 0.00 | 0.00 | 78 | 1013.2 |
| 20260506224131 | 63 | 360 | 9.6 | 14.8 | 0.00 | 0.00 | 0.00 | 78 | 1013.2 |
| 20260506224052 | 63 | 360 | 9.6 | 14.8 | 0.00 | 0.00 | 0.00 | 78 | 1013.2 |
| 20260506223952 | 63 | 360 | 9.6 | 16.5 | 0.00 | 0.00 | 0.00 | 78 | 1013.2 |
| 20260506223831 | 63 | 360 | 9.6 | 16.5 | 0.00 | 0.00 | 0.00 | 78 | 1013.1 |
| 20260506223731 | 63 | 360 | 9.6 | 16.5 | 0.00 | 0.00 | 0.00 | 78 | 1013.1 |
| 20260506223616 | 63 | 360 | 9.6 | 16.5 | 0.00 | 0.00 | 0.00 | 78 | 1013.2 |
| 20260506223517 | 63 | 360 | 9.6 | 16.5 | 0.00 | 0.00 | 0.00 | 78 | 1013.2 |
| 20260506223417 | 64 | 360 | 9.6 | 16.5 | 0.00 | 0.00 | 0.00 | 78 | 1013.1 |
| 20260506223318 | 64 | 360 | 9.6 | 16.5 | 0.00 | 0.00 | 0.00 | 78 | 1013.1 |
| 20260506223217 | 64 | 360 | 9.6 | 16.5 | 0.00 | 0.00 | 0.00 | 77 | 1013.2 |
| 20260506223118 | 64 | 360 | 8.7 | 16.5 | 0.00 | 0.00 | 0.00 | 77 | 1013.1 |
| 20260506223019 | 64 | 360 | 9.6 | 16.5 | 0.00 | 0.00 | 0.00 | 77 | 1013.1 |
| 20260506222923 | 64 | 360 | 9.6 | 16.5 | 0.00 | 0.00 | 0.00 | 77 | 1013.2 |
| 20260506222823 | 64 | 360 | 10.4 | 16.5 | 0.00 | 0.00 | 0.00 | 77 | 1013.1 |
| 20260506222723 | 64 | 360 | 11.3 | 16.5 | 0.00 | 0.00 | 0.00 | 77 | 1013.0 |
| 20260506222623 | 64 | 360 | 9.6 | 16.5 | 0.00 | 0.00 | 0.00 | 77 | 1013.0 |
| 20260506222524 | 64 | 360 | 9.6 | 16.5 | 0.00 | 0.00 | 0.00 | 77 | 1013.0 |
| 20260506222424 | 64 | 360 | 9.6 | 14.8 | 0.00 | 0.00 | 0.00 | 78 | 1013.0 |
| 20260506222328 | 64 | 360 | 10.4 | 14.8 | 0.00 | 0.00 | 0.00 | 77 | 1013.0 |
| 20260506222229 | 64 | 360 | 11.3 | 14.8 | 0.00 | 0.00 | 0.00 | 77 | 1013.0 |
| 20260506222129 | 64 | 360 | 10.4 | 14.8 | 0.00 | 0.00 | 0.00 | 77 | 1013.0 |
| 20260506222030 | 64 | 360 | 10.4 | 14.8 | 0.00 | 0.00 | 0.00 | 77 | 1012.9 |
| 20260506221931 | 64 | 360 | 10.4 | 13.9 | 0.00 | 0.00 | 0.00 | 77 | 1012.9 |
| 20260506221832 | 64 | 360 | 9.6 | 13.9 | 0.00 | 0.00 | 0.00 | 77 | 1012.8 |
| 20260506221732 | 64 | 360 | 9.6 | 13.9 | 0.00 | 0.00 | 0.00 | 77 | 1012.9 |
| 20260506221616 | 64 | 360 | 9.6 | 13.9 | 0.00 | 0.00 | 0.00 | 77 | 1012.9 |
| 20260506221517 | 64 | 360 | 8.7 | 13.9 | 0.00 | 0.00 | 0.00 | 77 | 1013.0 |
| 20260506221418 | 64 | 360 | 8.7 | 13.9 | 0.00 | 0.00 | 0.00 | 77 | 1013.1 |
| 20260506221317 | 64 | 360 | 7.8 | 13.0 | 0.00 | 0.00 | 0.00 | 77 | 1013.0 |
| 20260506221217 | 65 | 360 | 7.8 | 13.9 | 0.00 | 0.00 | 0.00 | 76 | 1013.1 |
| 20260506221118 | 65 | 360 | 7.8 | 13.9 | 0.00 | 0.00 | 0.00 | 76 | 1013.1 |
| 20260506221022 | 65 | 360 | 7.8 | 13.9 | 0.00 | 0.00 | 0.00 | 76 | 1013.1 |
| 20260506220922 | 65 | 360 | 8.7 | 13.9 | 0.00 | 0.00 | 0.00 | 76 | 1013.2 |
| 20260506220822 | 65 | 360 | 8.7 | 13.9 | 0.00 | 0.00 | 0.00 | 76 | 1013.2 |
| 20260506220724 | 65 | 360 | 8.7 | 13.9 | 0.00 | 0.00 | 0.00 | 77 | 1013.1 |
| 20260506220624 | 65 | 360 | 8.7 | 13.9 | 0.00 | 0.00 | 0.00 | 77 | 1013.0 |
| 20260506220544 | 65 | 360 | 9.6 | 15.6 | 0.00 | 0.00 | 0.00 | 76 | 1013.1 |
| 20260506220423 | 65 | 360 | 8.7 | 15.6 | 0.00 | 0.00 | 0.00 | 76 | 1013.1 |
| 20260506220328 | 65 | 360 | 8.7 | 15.6 | 0.00 | 0.00 | 0.00 | 76 | 1013.1 |
| 20260506220228 | 65 | 360 | 7.8 | 15.6 | 0.00 | 0.00 | 0.00 | 77 | 1013.1 |
| 20260506220128 | 65 | 360 | 7.8 | 15.6 | 0.00 | 0.00 | 0.00 | 77 | 1013.1 |
| 20260506220029 | 65 | 360 | 8.7 | 15.6 | 0.00 | 0.00 | 0.00 | 77 | 1013.1 |
| 20260506215930 | 65 | 360 | 9.6 | 15.6 | 0.00 | 0.00 | 0.00 | 77 | 1013.1 |
| 20260506215849 | 65 | 360 | 10.4 | 15.6 | 0.00 | 0.00 | 0.00 | 76 | 1013.1 |
| 20260506215730 | 65 | 360 | 10.4 | 15.6 | 0.00 | 0.00 | 0.00 | 76 | 1013.2 |
| 20260506215649 | 65 | 360 | 9.6 | 15.6 | 0.00 | 0.00 | 0.00 | 76 | 1013.2 |
| 20260506215533 | 65 | 360 | 10.4 | 15.6 | 0.00 | 0.00 | 0.00 | 76 | 1013.2 |
| 20260506215433 | 65 | 360 | 9.6 | 15.6 | 0.00 | 0.00 | 0.00 | 76 | 1013.3 |
| 20260506215333 | 65 | 360 | 8.7 | 14.8 | 0.00 | 0.00 | 0.00 | 76 | 1013.2 |
| 20260506215254 | 65 | 360 | 7.8 | 14.8 | 0.00 | 0.00 | 0.00 | 76 | 1013.2 |
| 20260506215133 | 66 | 360 | 7.8 | 14.8 | 0.00 | 0.00 | 0.00 | 76 | 1013.1 |
| 20260506215054 | 66 | 360 | 7.0 | 14.8 | 0.00 | 0.00 | 0.00 | 76 | 1013.1 |
| 20260506214934 | 66 | 360 | 7.8 | 14.8 | 0.00 | 0.00 | 0.00 | 76 | 1013.0 |
| 20260506214818 | 65 | 360 | 8.7 | 14.8 | 0.00 | 0.00 | 0.00 | 76 | 1013.0 |
| 20260506214718 | 65 | 360 | 8.7 | 14.8 | 0.00 | 0.00 | 0.00 | 76 | 1013.0 |
| 20260506214619 | 65 | 360 | 8.7 | 15.6 | 0.00 | 0.00 | 0.00 | 76 | 1013.0 |
| 20260506214519 | 65 | 360 | 8.7 | 15.6 | 0.00 | 0.00 | 0.00 | 76 | 1013.0 |
| 20260506214420 | 65 | 360 | 7.8 | 15.6 | 0.00 | 0.00 | 0.00 | 76 | 1012.9 |
| 20260506214321 | 65 | 360 | 8.7 | 15.6 | 0.00 | 0.00 | 0.00 | 75 | 1013.0 |
| 20260506214242 | 65 | 360 | 7.8 | 19.1 | 0.00 | 0.00 | 0.00 | 75 | 1012.9 |
| 20260506214147 | 65 | 360 | 8.7 | 19.1 | 0.00 | 0.00 | 0.00 | 76 | 1012.9 |
| 20260506214026 | 66 | 360 | 9.6 | 19.1 | 0.00 | 0.00 | 0.00 | 76 | 1013.0 |
| 20260506213926 | 65 | 360 | 9.6 | 19.1 | 0.00 | 0.00 | 0.00 | 75 | 1013.0 |
| 20260506213827 | 66 | 360 | 10.4 | 19.1 | 0.00 | 0.00 | 0.00 | 75 | 1013.0 |
| 20260506213728 | 66 | 360 | 10.4 | 19.1 | 0.00 | 0.00 | 0.00 | 76 | 1013.0 |
| 20260506213649 | 65 | 360 | 11.3 | 19.1 | 0.00 | 0.00 | 0.00 | 76 | 1013.0 |
| 20260506213528 | 65 | 360 | 11.3 | 19.1 | 0.00 | 0.00 | 0.00 | 76 | 1012.9 |
| 20260506213433 | 65 | 360 | 11.3 | 19.1 | 0.00 | 0.00 | 0.00 | 75 | 1013.0 |
| 20260506213332 | 66 | 360 | 11.3 | 16.5 | 0.00 | 0.00 | 0.00 | 75 | 1013.0 |
| 20260506213232 | 66 | 360 | 10.4 | 15.6 | 0.00 | 0.00 | 0.00 | 75 | 1013.0 |
| 20260506213134 | 66 | 360 | 10.4 | 15.6 | 0.00 | 0.00 | 0.00 | 75 | 1012.9 |
| 20260506213035 | 66 | 360 | 9.6 | 18.2 | 0.00 | 0.00 | 0.00 | 75 | 1012.9 |
| 20260506212935 | 66 | 360 | 9.6 | 18.2 | 0.00 | 0.00 | 0.00 | 74 | 1012.9 |
| 20260506212817 | 67 | 360 | 9.6 | 18.2 | 0.00 | 0.00 | 0.00 | 74 | 1012.8 |
| 20260506212720 | 67 | 360 | 9.6 | 18.2 | 0.00 | 0.00 | 0.00 | 74 | 1012.8 |
| 20260506212621 | 67 | 360 | 10.4 | 18.2 | 0.00 | 0.00 | 0.00 | 75 | 1012.7 |
| 20260506212541 | 67 | 360 | 11.3 | 18.2 | 0.00 | 0.00 | 0.00 | 74 | 1012.7 |
| 20260506212422 | 67 | 360 | 12.2 | 18.2 | 0.00 | 0.00 | 0.00 | 74 | 1012.8 |
| 20260506212341 | 67 | 360 | 12.2 | 18.2 | 0.00 | 0.00 | 0.00 | 74 | 1012.8 |
| 20260506212221 | 67 | 360 | 11.3 | 18.2 | 0.00 | 0.00 | 0.00 | 74 | 1012.7 |
| 20260506212143 | 67 | 360 | 9.6 | 18.2 | 0.00 | 0.00 | 0.00 | 74 | 1012.8 |
| 20260506212042 | 67 | 360 | 8.7 | 18.2 | 0.00 | 0.00 | 0.00 | 73 | 1012.8 |
| 20260506211926 | 67 | 360 | 8.7 | 16.5 | 0.00 | 0.00 | 0.00 | 73 | 1012.8 |
| 20260506211827 | 68 | 360 | 8.7 | 16.5 | 0.00 | 0.00 | 0.00 | 73 | 1012.9 |
| 20260506211728 | 68 | 360 | 8.7 | 16.5 | 0.00 | 0.00 | 0.00 | 72 | 1012.8 |
| 20260506211628 | 68 | 360 | 8.7 | 16.5 | 0.00 | 0.00 | 0.00 | 72 | 1012.9 |
| 20260506211549 | 69 | 360 | 8.7 | 16.5 | 0.00 | 0.00 | 0.00 | 73 | 1012.8 |
| 20260506211429 | 68 | 360 | 8.7 | 17.4 | 0.00 | 0.00 | 0.00 | 73 | 1012.8 |
| 20260506211329 | 68 | 360 | 9.6 | 17.4 | 0.00 | 0.00 | 0.00 | 73 | 1012.8 |
| 20260506211234 | 68 | 360 | 10.4 | 17.4 | 0.00 | 0.00 | 0.00 | 72 | 1012.7 |
| 20260506211133 | 68 | 360 | 9.6 | 17.4 | 0.00 | 0.00 | 0.00 | 73 | 1012.8 |
| 20260506211034 | 68 | 360 | 9.6 | 17.4 | 0.00 | 0.00 | 0.00 | 73 | 1012.8 |
| 20260506210935 | 68 | 360 | 9.6 | 18.2 | 0.00 | 0.00 | 0.00 | 73 | 1012.8 |
| 20260506210816 | 68 | 360 | 9.6 | 18.2 | 0.00 | 0.00 | 0.00 | 73 | 1012.7 |
| 20260506210717 | 69 | 360 | 11.3 | 18.2 | 0.00 | 0.00 | 0.00 | 72 | 1012.6 |
| 20260506210622 | 69 | 360 | 10.4 | 18.2 | 0.00 | 0.00 | 0.00 | 72 | 1012.7 |
| 20260506210523 | 69 | 360 | 9.6 | 18.2 | 0.00 | 0.00 | 0.00 | 72 | 1012.7 |
| 20260506210443 | 69 | 360 | 8.7 | 18.2 | 0.00 | 0.00 | 0.00 | 72 | 1012.7 |
| 20260506210404 | 70 | 360 | 7.8 | 18.2 | 0.00 | 0.00 | 0.00 | 73 | 1012.7 |
| 20260506210216 | 69 | 360 | 9.6 | 18.2 | 0.00 | 0.00 | 0.00 | 72 | 1012.8 |
| 20260506210117 | 69 | 360 | 10.4 | 18.2 | 0.00 | 0.00 | 0.00 | 72 | 1012.8 |
| 20260506210017 | 69 | 360 | 10.4 | 18.2 | 0.00 | 0.00 | 0.00 | 72 | 1012.9 |
| 20260506205918 | 70 | 360 | 11.3 | 18.2 | 0.00 | 0.00 | 0.00 | 71 | 1012.9 |
| 20260506205824 | 70 | 360 | 10.4 | 18.2 | 0.00 | 0.00 | 0.00 | 72 | 1012.8 |
| 20260506205744 | 70 | 360 | 10.4 | 16.5 | 0.00 | 0.00 | 0.00 | 72 | 1012.8 |
| 20260506205624 | 70 | 360 | 10.4 | 16.5 | 0.00 | 0.00 | 0.00 | 71 | 1012.9 |
| 20260506205524 | 70 | 360 | 9.6 | 16.5 | 0.00 | 0.00 | 0.00 | 72 | 1012.8 |
| 20260506205425 | 70 | 360 | 10.4 | 19.1 | 0.00 | 0.00 | 0.00 | 72 | 1012.9 |
| 20260506205326 | 70 | 360 | 10.4 | 19.1 | 0.00 | 0.00 | 0.00 | 72 | 1012.9 |
| 20260506205224 | 70 | 360 | 9.6 | 19.1 | 0.00 | 0.00 | 0.00 | 72 | 1012.9 |
| 20260506205128 | 70 | 360 | 9.6 | 19.1 | 0.00 | 0.00 | 0.00 | 73 | 1012.9 |
| 20260506205028 | 70 | 360 | 9.6 | 19.1 | 0.00 | 0.00 | 0.00 | 73 | 1012.8 |
| 20260506204929 | 70 | 360 | 10.4 | 19.1 | 0.00 | 0.00 | 0.00 | 72 | 1012.8 |
| 20260506204830 | 70 | 360 | 9.6 | 19.1 | 0.00 | 0.00 | 0.00 | 72 | 1012.8 |
| 20260506204750 | 70 | 360 | 9.6 | 18.2 | 0.00 | 0.00 | 0.00 | 72 | 1012.8 |
| 20260506204650 | 71 | 360 | 9.6 | 18.2 | 0.00 | 0.00 | 0.00 | 72 | 1012.8 |
| 20260506204528 | 71 | 360 | 9.6 | 17.4 | 0.00 | 0.00 | 0.00 | 72 | 1012.8 |
| 20260506204449 | 71 | 360 | 8.7 | 17.4 | 0.00 | 0.00 | 0.00 | 72 | 1012.8 |
| 20260506204332 | 71 | 360 | 9.6 | 17.4 | 0.00 | 0.00 | 0.00 | 71 | 1012.9 |
| 20260506204233 | 72 | 360 | 9.6 | 17.4 | 0.00 | 0.00 | 0.00 | 71 | 1013.0 |
| 20260506204135 | 72 | 360 | 8.7 | 17.4 | 0.00 | 0.00 | 0.00 | 72 | 1012.9 |
| 20260506204034 | 72 | 360 | 7.8 | 17.4 | 0.00 | 0.00 | 0.00 | 71 | 1013.0 |
| 20260506203933 | 72 | 360 | 8.7 | 17.4 | 0.00 | 0.00 | 0.00 | 72 | 1013.1 |
| 20260506203835 | 72 | 360 | 8.7 | 17.4 | 0.00 | 0.00 | 0.00 | 72 | 1013.1 |
| 20260506203735 | 72 | 360 | 7.8 | 17.4 | 0.00 | 0.00 | 0.00 | 73 | 1013.0 |
| 20260506203619 | 71 | 360 | 8.7 | 17.4 | 0.00 | 0.00 | 0.00 | 72 | 1013.0 |
| 20260506203519 | 72 | 360 | 8.7 | 14.8 | 0.00 | 0.00 | 0.00 | 72 | 1013.1 |
| 20260506203420 | 72 | 360 | 9.6 | 14.8 | 0.00 | 0.00 | 0.00 | 72 | 1013.1 |
| 20260506203340 | 72 | 360 | 9.6 | 14.8 | 0.00 | 0.00 | 0.00 | 72 | 1013.1 |
| 20260506203221 | 72 | 360 | 8.7 | 14.8 | 0.00 | 0.00 | 0.00 | 72 | 1013.1 |
| 20260506203122 | 72 | 360 | 7.8 | 14.8 | 0.00 | 0.00 | 0.00 | 72 | 1013.1 |
| 20260506203024 | 72 | 360 | 7.8 | 16.5 | 0.00 | 0.00 | 0.00 | 73 | 1013.1 |
| 20260506202928 | 72 | 360 | 7.8 | 16.5 | 0.00 | 0.00 | 0.00 | 73 | 1013.1 |
| 20260506202829 | 72 | 360 | 8.7 | 16.5 | 0.00 | 0.00 | 0.00 | 72 | 1013.1 |
| 20260506202750 | 72 | 49 | 8.7 | 16.5 | 0.00 | 0.00 | 0.00 | 72 | 1013.1 |
| 20260506202628 | 72 | 360 | 8.7 | 16.5 | 0.00 | 0.00 | 0.00 | 72 | 1013.1 |
| 20260506202529 | 72 | 360 | 8.7 | 16.5 | 0.00 | 0.00 | 0.00 | 74 | 1013.2 |
| 20260506202430 | 72 | 360 | 8.7 | 16.5 | 0.00 | 0.00 | 0.00 | 74 | 1013.1 |
| 20260506202350 | 72 | 360 | 8.7 | 16.5 | 0.00 | 0.00 | 0.00 | 73 | 1013.2 |
| 20260506202250 | 72 | 360 | 8.7 | 15.6 | 0.00 | 0.00 | 0.00 | 73 | 1013.1 |
| 20260506202132 | 72 | 360 | 9.6 | 15.6 | 0.00 | 0.00 | 0.00 | 72 | 1013.1 |
| 20260506202033 | 72 | 360 | 8.7 | 14.8 | 0.00 | 0.00 | 0.00 | 72 | 1013.0 |
| 20260506201934 | 72 | 360 | 8.7 | 14.8 | 0.00 | 0.00 | 0.00 | 73 | 1013.0 |
| 20260506201835 | 72 | 360 | 8.7 | 14.8 | 0.00 | 0.00 | 0.00 | 74 | 1013.0 |
| 20260506201735 | 72 | 360 | 8.7 | 14.8 | 0.00 | 0.00 | 0.00 | 74 | 1013.0 |
| 20260506201635 | 72 | 360 | 8.7 | 14.8 | 0.00 | 0.00 | 0.00 | 74 | 1013.0 |
| 20260506201540 | 72 | 360 | 8.7 | 14.8 | 0.00 | 0.00 | 0.00 | 74 | 1012.9 |
| 20260506201418 | 71 | 360 | 8.7 | 14.8 | 0.00 | 0.00 | 0.00 | 74 | 1012.9 |
| 20260506201318 | 72 | 360 | 9.6 | 18.2 | 0.00 | 0.00 | 0.00 | 74 | 1013.0 |
| 20260506201218 | 72 | 360 | 10.4 | 18.2 | 0.00 | 0.00 | 0.00 | 74 | 1013.0 |
| 20260506201118 | 72 | 360 | 10.4 | 18.2 | 0.00 | 0.00 | 0.00 | 73 | 1013.0 |
| 20260506201019 | 72 | 360 | 9.6 | 18.2 | 0.00 | 0.00 | 0.00 | 73 | 1012.9 |
| 20260506200940 | 72 | 360 | 8.7 | 18.2 | 0.00 | 0.00 | 0.00 | 73 | 1012.9 |
| 20260506200819 | 72 | 360 | 8.7 | 18.2 | 0.00 | 0.00 | 0.00 | 73 | 1012.9 |
| 20260506200724 | 72 | 360 | 8.7 | 18.2 | 0.00 | 0.00 | 0.00 | 74 | 1012.8 |
| 20260506200625 | 72 | 360 | 8.7 | 18.2 | 0.00 | 0.00 | 0.00 | 73 | 1012.8 |
| 20260506200546 | 72 | 360 | 9.6 | 19.1 | 0.00 | 0.00 | 0.00 | 73 | 1012.8 |
| 20260506200424 | 72 | 360 | 8.7 | 19.1 | 0.00 | 0.00 | 0.00 | 73 | 1012.7 |
| 20260506200345 | 72 | 360 | 9.6 | 19.1 | 0.00 | 0.00 | 0.00 | 73 | 1012.7 |
| 20260506200224 | 72 | 360 | 8.7 | 19.1 | 0.00 | 0.00 | 0.00 | 73 | 1012.6 |
| 20260506200144 | 72 | 360 | 9.6 | 19.1 | 0.00 | 0.00 | 0.00 | 73 | 1012.7 |
| 20260506200024 | 72 | 360 | 11.3 | 19.1 | 0.00 | 0.00 | 0.00 | 73 | 1012.8 |
| 20260506195925 | 72 | 360 | 11.3 | 19.1 | 0.00 | 0.00 | 0.00 | 73 | 1012.7 |
| 20260506195828 | 73 | 360 | 12.2 | 19.1 | 0.00 | 0.00 | 0.00 | 72 | 1012.7 |
| 20260506195731 | 73 | 360 | 12.2 | 19.1 | 0.00 | 0.00 | 0.00 | 72 | 1012.7 |
| 20260506195630 | 73 | 360 | 11.3 | 19.1 | 0.00 | 0.00 | 0.00 | 72 | 1012.6 |
| 20260506195551 | 73 | 360 | 10.4 | 18.2 | 0.00 | 0.00 | 0.00 | 73 | 1012.6 |
| 20260506195431 | 73 | 360 | 9.6 | 18.2 | 0.00 | 0.00 | 0.00 | 73 | 1012.7 |
| 20260506195331 | 73 | 360 | 10.4 | 19.1 | 0.00 | 0.00 | 0.00 | 73 | 1012.6 |
| 20260506195231 | 73 | 360 | 10.4 | 19.1 | 0.00 | 0.00 | 0.00 | 73 | 1012.6 |
| 20260506195135 | 73 | 360 | 10.4 | 19.1 | 0.00 | 0.00 | 0.00 | 73 | 1012.5 |
| 20260506195036 | 73 | 360 | 10.4 | 19.1 | 0.00 | 0.00 | 0.00 | 72 | 1012.5 |
| 20260506194930 | 74 | 360 | 9.6 | 19.1 | 0.00 | 0.00 | 0.00 | 73 | 1012.5 |
| 20260506194830 | 74 | 360 | 9.6 | 19.1 | 0.00 | 0.00 | 0.00 | 74 | 1012.4 |
| 20260506194731 | 74 | 360 | 10.4 | 19.1 | 0.00 | 0.00 | 0.00 | 74 | 1012.4 |
| 20260506194630 | 73 | 360 | 11.3 | 19.1 | 0.00 | 0.00 | 0.00 | 74 | 1012.4 |
| 20260506194551 | 73 | 360 | 11.3 | 19.1 | 0.00 | 0.00 | 0.00 | 74 | 1012.4 |
| 20260506194434 | 73 | 360 | 12.2 | 19.1 | 0.00 | 0.00 | 0.00 | 74 | 1012.4 |
| 20260506194334 | 73 | 360 | 11.3 | 18.2 | 0.00 | 0.00 | 0.00 | 74 | 1012.4 |
| 20260506194217 | 73 | 360 | 11.3 | 18.2 | 0.00 | 0.00 | 0.00 | 74 | 1012.4 |
| 20260506194117 | 73 | 360 | 10.4 | 18.2 | 0.00 | 0.00 | 0.00 | 74 | 1012.3 |
| 20260506194018 | 73 | 360 | 10.4 | 18.2 | 0.00 | 0.00 | 0.00 | 74 | 1012.3 |
| 20260506193918 | 73 | 360 | 10.4 | 18.2 | 0.00 | 0.00 | 0.00 | 74 | 1012.4 |
| 20260506193823 | 73 | 360 | 10.4 | 18.2 | 0.00 | 0.00 | 0.00 | 74 | 1012.5 |
| 20260506193722 | 73 | 360 | 11.3 | 18.2 | 0.00 | 0.00 | 0.00 | 74 | 1012.5 |
| 20260506193645 | 73 | 360 | 11.3 | 18.2 | 0.00 | 0.00 | 0.00 | 74 | 1012.4 |
| 20260506193524 | 73 | 360 | 11.3 | 18.2 | 0.00 | 0.00 | 0.00 | 74 | 1012.4 |
| 20260506193423 | 74 | 360 | 10.4 | 18.2 | 0.00 | 0.00 | 0.00 | 74 | 1012.4 |
| 20260506193324 | 74 | 360 | 9.6 | 19.1 | 0.00 | 0.00 | 0.00 | 74 | 1012.3 |
| 20260506193224 | 74 | 360 | 9.6 | 19.1 | 0.00 | 0.00 | 0.00 | 74 | 1012.4 |
| 20260506193125 | 74 | 360 | 10.4 | 19.1 | 0.00 | 0.00 | 0.00 | 74 | 1012.4 |
| 20260506193049 | 74 | 360 | 10.4 | 19.1 | 0.00 | 0.00 | 0.00 | 74 | 1012.4 |
| 20260506192928 | 74 | 360 | 10.4 | 19.1 | 0.00 | 0.00 | 0.00 | 74 | 1012.3 |
| 20260506192828 | 75 | 360 | 11.3 | 19.1 | 0.00 | 0.00 | 0.00 | 74 | 1012.4 |
| 20260506192750 | 75 | 360 | 10.4 | 19.1 | 0.00 | 0.00 | 0.00 | 74 | 1012.5 |
| 20260506192628 | 75 | 360 | 10.4 | 19.1 | 0.00 | 0.00 | 0.00 | 72 | 1012.4 |
| 20260506192529 | 76 | 360 | 10.4 | 19.1 | 0.00 | 0.00 | 0.00 | 72 | 1012.3 |
| 20260506192430 | 76 | 360 | 9.6 | 16.5 | 0.00 | 0.00 | 0.00 | 73 | 1012.3 |
| 20260506192333 | 77 | 360 | 9.6 | 14.8 | 0.00 | 0.00 | 0.00 | 71 | 1012.3 |
| 20260506192234 | 77 | 360 | 9.6 | 14.8 | 0.00 | 0.00 | 0.00 | 71 | 1012.3 |
| 20260506192135 | 77 | 360 | 8.7 | 14.8 | 0.00 | 0.00 | 0.00 | 71 | 1012.3 |
| 20260506192035 | 78 | 360 | 7.8 | 13.9 | 0.00 | 0.00 | 0.00 | 70 | 1012.3 |
| 20260506191917 | 78 | 360 | 7.0 | 12.2 | 0.00 | 0.00 | 0.00 | 70 | 1012.3 |
| 20260506191817 | 78 | 360 | 7.0 | 12.2 | 0.00 | 0.00 | 0.00 | 70 | 1012.3 |
| 20260506191721 | 78 | 360 | 7.0 | 12.2 | 0.00 | 0.00 | 0.00 | 70 | 1012.3 |
| 20260506191622 | 78 | 360 | 7.0 | 12.2 | 0.00 | 0.00 | 0.00 | 70 | 1012.3 |
| 20260506191542 | 78 | 360 | 7.8 | 12.2 | 0.00 | 0.00 | 0.00 | 70 | 1012.3 |
| 20260506191416 | 78 | 360 | 7.8 | 12.2 | 0.00 | 0.00 | 0.00 | 70 | 1012.4 |
| 20260506191317 | 79 | 360 | 7.8 | 12.2 | 0.00 | 0.00 | 0.00 | 70 | 1012.3 |
| 20260506191217 | 79 | 11 | 7.8 | 12.2 | 0.00 | 0.00 | 0.00 | 70 | 1012.3 |
| 20260506191117 | 79 | 360 | 7.0 | 12.2 | 0.00 | 0.00 | 0.00 | 70 | 1012.3 |
| 20260506191021 | 79 | 360 | 7.8 | 12.2 | 0.00 | 0.00 | 0.00 | 69 | 1012.3 |
| 20260506190922 | 79 | 360 | 7.0 | 12.2 | 0.00 | 0.00 | 0.00 | 69 | 1012.3 |
| 20260506190843 | 79 | 360 | 7.0 | 12.2 | 0.00 | 0.00 | 0.00 | 69 | 1012.3 |
| 20260506190803 | 79 | 360 | 7.0 | 10.4 | 0.00 | 0.00 | 0.00 | 69 | 1012.3 |
| 20260506190616 | 79 | 360 | 7.0 | 10.4 | 0.00 | 0.00 | 0.00 | 69 | 1012.4 |
| 20260506190517 | 79 | 360 | 7.8 | 10.4 | 0.00 | 0.00 | 0.00 | 69 | 1012.4 |
| 20260506190416 | 80 | 360 | 7.0 | 10.4 | 0.00 | 0.00 | 0.00 | 69 | 1012.5 |
| 20260506190320 | 80 | 360 | 6.1 | 10.4 | 0.00 | 0.00 | 0.00 | 69 | 1012.5 |
| 20260506190221 | 80 | 360 | 4.3 | 8.7 | 0.00 | 0.00 | 0.00 | 70 | 1012.6 |
| 20260506190121 | 80 | 360 | 3.5 | 8.7 | 0.00 | 0.00 | 0.00 | 70 | 1012.6 |
| 20260506190022 | 79 | 360 | 3.5 | 8.7 | 0.00 | 0.00 | 0.00 | 70 | 1012.7 |
| 20260506185923 | 79 | 360 | 3.5 | 8.7 | 0.00 | 0.00 | 0.00 | 70 | 1012.6 |
| 20260506185825 | 79 | 360 | 4.3 | 8.7 | 0.00 | 0.00 | 0.00 | 70 | 1012.6 |
| 20260506185725 | 79 | 360 | 4.3 | 8.7 | 0.00 | 0.00 | 0.00 | 70 | 1012.6 |
| 20260506185629 | 79 | 360 | 4.3 | 8.7 | 0.00 | 0.00 | 0.00 | 71 | 1012.6 |
| 20260506185550 | 79 | 360 | 4.3 | 8.7 | 0.00 | 0.00 | 0.00 | 71 | 1012.6 |
| 20260506185429 | 79 | 360 | 3.5 | 8.7 | 0.00 | 0.00 | 0.00 | 72 | 1012.6 |
| 20260506185331 | 79 | 360 | 2.6 | 8.7 | 0.00 | 0.00 | 0.00 | 72 | 1012.5 |
| 20260506185252 | 78 | 360 | 2.6 | 8.7 | 0.00 | 0.00 | 0.00 | 72 | 1012.5 |
| 20260506185132 | 78 | 360 | 3.5 | 8.7 | 0.00 | 0.00 | 0.00 | 71 | 1012.5 |
| 20260506185031 | 79 | 360 | 3.5 | 8.7 | 0.00 | 0.00 | 0.00 | 71 | 1012.5 |
| 20260506184932 | 79 | 360 | 4.3 | 8.7 | 0.00 | 0.00 | 0.00 | 70 | 1012.6 |
| 20260506184816 | 80 | 360 | 4.3 | 8.7 | 0.00 | 0.00 | 0.00 | 69 | 1012.6 |
| 20260506184716 | 80 | 32 | 4.3 | 8.7 | 0.00 | 0.00 | 0.00 | 70 | 1012.5 |
| 20260506184617 | 80 | 360 | 4.3 | 8.7 | 0.00 | 0.00 | 0.00 | 69 | 1012.5 |
| 20260506184517 | 80 | 360 | 4.3 | 8.7 | 0.00 | 0.00 | 0.00 | 70 | 1012.4 |
| 20260506184418 | 80 | 360 | 4.3 | 7.8 | 0.00 | 0.00 | 0.00 | 70 | 1012.4 |
| 20260506184319 | 80 | 360 | 4.3 | 7.8 | 0.00 | 0.00 | 0.00 | 69 | 1012.4 |
| 20260506184223 | 80 | 360 | 4.3 | 7.8 | 0.00 | 0.00 | 0.00 | 69 | 1012.4 |
| 20260506184123 | 80 | 360 | 3.5 | 7.8 | 0.00 | 0.00 | 0.00 | 70 | 1012.3 |
| 20260506184024 | 80 | 360 | 2.6 | 7.8 | 0.00 | 0.00 | 0.00 | 72 | 1012.3 |
| 20260506183924 | 80 | 360 | 2.6 | 7.0 | 0.00 | 0.00 | 0.00 | 72 | 1012.3 |
| 20260506183825 | 79 | 360 | 3.5 | 7.0 | 0.00 | 0.00 | 0.00 | 71 | 1012.3 |
| 20260506183745 | 79 | 360 | 3.5 | 7.0 | 0.00 | 0.00 | 0.00 | 71 | 1012.4 |
| 20260506183625 | 79 | 15 | 3.5 | 7.0 | 0.00 | 0.00 | 0.00 | 71 | 1012.3 |
| 20260506183529 | 79 | 360 | 3.5 | 7.0 | 0.00 | 0.00 | 0.00 | 72 | 1012.3 |
| 20260506183430 | 79 | 360 | 3.5 | 7.0 | 0.00 | 0.00 | 0.00 | 72 | 1012.3 |
| 20260506183351 | 79 | 360 | 3.5 | 7.0 | 0.00 | 0.00 | 0.00 | 72 | 1012.3 |
| 20260506183230 | 78 | 360 | 3.5 | 7.0 | 0.00 | 0.00 | 0.00 | 71 | 1012.2 |
| 20260506183130 | 79 | 360 | 3.5 | 7.0 | 0.00 | 0.00 | 0.00 | 71 | 1012.2 |
| 20260506183052 | 79 | 27 | 3.5 | 7.0 | 0.00 | 0.00 | 0.00 | 72 | 1012.2 |
| 20260506182951 | 79 | 360 | 2.6 | 7.0 | 0.00 | 0.00 | 0.00 | 72 | 1012.2 |
| 20260506182831 | 79 | 360 | 1.7 | 4.3 | 0.00 | 0.00 | 0.00 | 72 | 1012.2 |
| 20260506182755 | 79 | 360 | 1.7 | 4.3 | 0.00 | 0.00 | 0.00 | 72 | 1012.2 |
| 20260506182632 | 78 | 360 | 1.7 | 4.3 | 0.00 | 0.00 | 0.00 | 74 | 1012.3 |
| 20260506182553 | 77 | 360 | 1.7 | 5.2 | 0.00 | 0.00 | 0.00 | 74 | 1012.3 |
| 20260506182432 | 77 | 360 | 2.6 | 5.2 | 0.00 | 0.00 | 0.00 | 74 | 1012.3 |
| 20260506182332 | 77 | 360 | 2.6 | 5.2 | 0.00 | 0.00 | 0.00 | 74 | 1012.3 |
| 20260506182232 | 77 | 360 | 3.5 | 5.2 | 0.00 | 0.00 | 0.00 | 74 | 1012.3 |
| 20260506182132 | 76 | 360 | 3.5 | 5.2 | 0.00 | 0.00 | 0.00 | 74 | 1012.3 |
| 20260506182017 | 77 | 360 | 3.5 | 5.2 | 0.00 | 0.00 | 0.00 | 74 | 1012.4 |
| 20260506181918 | 77 | 360 | 3.5 | 5.2 | 0.00 | 0.00 | 0.00 | 74 | 1012.4 |
| 20260506181818 | 77 | 360 | 3.5 | 5.2 | 0.00 | 0.00 | 0.00 | 74 | 1012.4 |
| 20260506181718 | 77 | 360 | 3.5 | 5.2 | 0.00 | 0.00 | 0.00 | 74 | 1012.5 |
| 20260506181619 | 76 | 360 | 3.5 | 5.2 | 0.00 | 0.00 | 0.00 | 74 | 1012.5 |
| 20260506181519 | 77 | 360 | 2.6 | 7.0 | 0.00 | 0.00 | 0.00 | 74 | 1012.5 |
| 20260506181424 | 77 | 360 | 2.6 | 7.0 | 0.00 | 0.00 | 0.00 | 74 | 1012.5 |
| 20260506181325 | 77 | 360 | 2.6 | 7.0 | 0.00 | 0.00 | 0.00 | 75 | 1012.5 |
| 20260506181225 | 77 | 360 | 2.6 | 7.0 | 0.00 | 0.00 | 0.00 | 74 | 1012.5 |
| 20260506181146 | 76 | 360 | 2.6 | 5.2 | 0.00 | 0.00 | 0.00 | 74 | 1012.5 |
| 20260506181045 | 76 | 360 | 3.5 | 5.2 | 0.00 | 0.00 | 0.00 | 74 | 1012.5 |
| 20260506180925 | 76 | 360 | 3.5 | 5.2 | 0.00 | 0.00 | 0.00 | 75 | 1012.5 |
| 20260506180825 | 76 | 360 | 3.5 | 5.2 | 0.00 | 0.00 | 0.00 | 75 | 1012.4 |
| 20260506180725 | 76 | 360 | 3.5 | 5.2 | 0.00 | 0.00 | 0.00 | 75 | 1012.5 |
| 20260506180650 | 76 | 360 | 2.6 | 5.2 | 0.00 | 0.00 | 0.00 | 75 | 1012.5 |
| 20260506180530 | 76 | 360 | 2.6 | 5.2 | 0.00 | 0.00 | 0.00 | 75 | 1012.5 |
| 20260506180430 | 76 | 360 | 2.6 | 5.2 | 0.00 | 0.00 | 0.00 | 75 | 1012.5 |
| 20260506180331 | 76 | 360 | 2.6 | 5.2 | 0.00 | 0.00 | 0.00 | 75 | 1012.5 |
| 20260506180251 | 76 | 360 | 2.6 | 5.2 | 0.00 | 0.00 | 0.00 | 75 | 1012.4 |
| 20260506180131 | 75 | 360 | 2.6 | 7.0 | 0.00 | 0.00 | 0.00 | 75 | 1012.5 |
| 20260506180032 | 75 | 360 | 2.6 | 7.0 | 0.00 | 0.00 | 0.00 | 75 | 1012.5 |
| 20260506175952 | 75 | 46 | 3.5 | 7.0 | 0.00 | 0.00 | 0.00 | 75 | 1012.4 |
| 20260506175818 | 75 | 67 | 3.5 | 7.0 | 0.00 | 0.00 | 0.00 | 75 | 1012.4 |
| 20260506175717 | 75 | 360 | 3.5 | 7.0 | 0.00 | 0.00 | 0.00 | 75 | 1012.4 |
| 20260506175616 | 75 | 360 | 3.5 | 7.0 | 0.00 | 0.00 | 0.00 | 75 | 1012.4 |
| 20260506175517 | 75 | 360 | 3.5 | 7.0 | 0.00 | 0.00 | 0.00 | 74 | 1012.3 |
| 20260506175417 | 75 | 360 | 3.5 | 7.0 | 0.00 | 0.00 | 0.00 | 75 | 1012.4 |
| 20260506175318 | 75 | 360 | 3.5 | 7.0 | 0.00 | 0.00 | 0.00 | 74 | 1012.4 |
| 20260506175222 | 75 | 360 | 2.6 | 7.0 | 0.00 | 0.00 | 0.00 | 74 | 1012.4 |
| 20260506175124 | 76 | 360 | 2.6 | 7.0 | 0.00 | 0.00 | 0.00 | 74 | 1012.3 |
| 20260506175025 | 76 | 360 | 2.6 | 7.0 | 0.00 | 0.00 | 0.00 | 74 | 1012.4 |
| 20260506174924 | 76 | 360 | 1.7 | 5.2 | 0.00 | 0.00 | 0.00 | 75 | 1012.3 |
| 20260506174825 | 75 | 360 | 1.7 | 5.2 | 0.00 | 0.00 | 0.00 | 76 | 1012.4 |
| 20260506174726 | 75 | 360 | 0.9 | 5.2 | 0.00 | 0.00 | 0.00 | 77 | 1012.4 |
| 20260506174647 | 74 | 360 | 0.9 | 5.2 | 0.00 | 0.00 | 0.00 | 77 | 1012.4 |
| 20260506174529 | 74 | 360 | 1.7 | 5.2 | 0.00 | 0.00 | 0.00 | 79 | 1012.3 |
| 20260506174430 | 73 | 360 | 1.7 | 5.2 | 0.00 | 0.00 | 0.00 | 79 | 1012.4 |
| 20260506174332 | 73 | 360 | 2.6 | 5.2 | 0.00 | 0.00 | 0.00 | 79 | 1012.4 |
| 20260506174253 | 72 | 360 | 2.6 | 5.2 | 0.00 | 0.00 | 0.00 | 79 | 1012.4 |
| 20260506174132 | 72 | 360 | 3.5 | 5.2 | 0.00 | 0.00 | 0.00 | 79 | 1012.4 |
| 20260506174033 | 72 | 360 | 3.5 | 5.2 | 0.00 | 0.00 | 0.00 | 79 | 1012.4 |
| 20260506173934 | 72 | 80 | 3.5 | 5.2 | 0.00 | 0.00 | 0.00 | 79 | 1012.4 |
| 20260506173819 | 72 | 59 | 3.5 | 10.4 | 0.00 | 0.00 | 0.00 | 79 | 1012.4 |
| 20260506173739 | 72 | 360 | 3.5 | 10.4 | 0.00 | 0.00 | 0.00 | 80 | 1012.5 |
| 20260506173618 | 71 | 360 | 3.5 | 10.4 | 0.00 | 0.00 | 0.00 | 80 | 1012.5 |
| 20260506173517 | 71 | 360 | 2.6 | 10.4 | 0.00 | 0.00 | 0.00 | 80 | 1012.6 |
| 20260506173437 | 71 | 360 | 2.6 | 10.4 | 0.00 | 0.00 | 0.00 | 80 | 1012.6 |
| 20260506173317 | 71 | 360 | 3.5 | 10.4 | 0.00 | 0.00 | 0.00 | 79 | 1012.7 |
| 20260506173218 | 71 | 360 | 4.3 | 10.4 | 0.00 | 0.00 | 0.00 | 79 | 1012.7 |
| 20260506173118 | 71 | 360 | 4.3 | 10.4 | 0.00 | 0.00 | 0.00 | 78 | 1012.7 |
| 20260506173023 | 71 | 360 | 4.3 | 8.7 | 0.00 | 0.00 | 0.00 | 78 | 1012.7 |
| 20260506172922 | 72 | 360 | 4.3 | 7.0 | 0.00 | 0.00 | 0.00 | 78 | 1012.7 |
| 20260506172824 | 72 | 360 | 3.5 | 7.0 | 0.00 | 0.00 | 0.00 | 78 | 1012.6 |
| 20260506172723 | 72 | 360 | 2.6 | 7.0 | 0.00 | 0.00 | 0.00 | 78 | 1012.6 |
| 20260506172624 | 72 | 360 | 2.6 | 7.0 | 0.00 | 0.00 | 0.00 | 78 | 1012.6 |
| 20260506172525 | 72 | 360 | 2.6 | 7.0 | 0.00 | 0.00 | 0.00 | 79 | 1012.7 |
| 20260506172425 | 72 | 360 | 2.6 | 7.0 | 0.00 | 0.00 | 0.00 | 79 | 1012.6 |
| 20260506172330 | 72 | 360 | 1.7 | 7.0 | 0.00 | 0.00 | 0.00 | 79 | 1012.6 |
| 20260506172229 | 72 | 360 | 1.7 | 7.8 | 0.00 | 0.00 | 0.00 | 80 | 1012.6 |
| 20260506172131 | 71 | 360 | 0.9 | 7.8 | 0.00 | 0.00 | 0.00 | 81 | 1012.6 |
| 20260506172031 | 70 | 360 | 0.9 | 7.8 | 0.00 | 0.00 | 0.00 | 81 | 1012.6 |
| 20260506171932 | 70 | 360 | 1.7 | 7.8 | 0.00 | 0.00 | 0.00 | 82 | 1012.6 |
| 20260506171832 | 70 | 360 | 3.5 | 7.8 | 0.00 | 0.00 | 0.00 | 82 | 1012.7 |
| 20260506171716 | 69 | 360 | 3.5 | 7.8 | 0.00 | 0.00 | 0.00 | 81 | 1012.7 |
| 20260506171617 | 69 | 360 | 4.3 | 7.8 | 0.00 | 0.00 | 0.00 | 80 | 1012.7 |
| 20260506171518 | 69 | 360 | 3.5 | 7.8 | 0.00 | 0.00 | 0.00 | 80 | 1012.8 |
| 20260506171439 | 70 | 360 | 3.5 | 7.8 | 0.00 | 0.00 | 0.00 | 80 | 1012.8 |
| 20260506171318 | 69 | 360 | 3.5 | 7.8 | 0.00 | 0.00 | 0.00 | 81 | 1012.7 |
| 20260506171238 | 69 | 360 | 4.3 | 7.8 | 0.00 | 0.00 | 0.00 | 81 | 1012.8 |
| 20260506171137 | 69 | 360 | 4.3 | 7.8 | 0.00 | 0.00 | 0.00 | 81 | 1012.7 |
| 20260506171018 | 69 | 360 | 4.3 | 7.8 | 0.00 | 0.00 | 0.00 | 81 | 1012.7 |
| 20260506170943 | 69 | 360 | 4.3 | 7.8 | 0.00 | 0.00 | 0.00 | 81 | 1012.7 |
| 20260506170822 | 69 | 360 | 4.3 | 7.8 | 0.00 | 0.00 | 0.00 | 82 | 1012.6 |
| 20260506170743 | 68 | 360 | 4.3 | 7.8 | 0.00 | 0.00 | 0.00 | 82 | 1012.7 |
| 20260506170621 | 68 | 360 | 4.3 | 7.8 | 0.00 | 0.00 | 0.00 | 82 | 1012.7 |
| 20260506170542 | 68 | 360 | 4.3 | 7.8 | 0.00 | 0.00 | 0.00 | 82 | 1012.7 |
| 20260506170416 | 68 | 360 | 3.5 | 8.7 | 0.00 | 0.00 | 0.00 | 83 | 1012.8 |
| 20260506170317 | 68 | 360 | 3.5 | 8.7 | 0.00 | 0.00 | 0.00 | 83 | 1012.8 |
| 20260506170216 | 67 | 360 | 4.3 | 8.7 | 0.00 | 0.00 | 0.00 | 83 | 1012.8 |
| 20260506170121 | 67 | 69 | 4.3 | 8.7 | 0.00 | 0.00 | 0.00 | 82 | 1012.8 |
| 20260506170042 | 67 | 57 | 4.3 | 8.7 | 0.00 | 0.00 | 0.00 | 82 | 1012.9 |
| 20260506165921 | 68 | 360 | 3.5 | 8.7 | 0.00 | 0.00 | 0.00 | 82 | 1012.9 |
| 20260506165843 | 68 | 360 | 3.5 | 8.7 | 0.00 | 0.00 | 0.00 | 82 | 1012.9 |
| 20260506165716 | 68 | 360 | 4.3 | 8.7 | 0.00 | 0.00 | 0.00 | 83 | 1012.9 |
| 20260506165616 | 67 | 360 | 5.2 | 8.7 | 0.00 | 0.00 | 0.00 | 83 | 1012.9 |
| 20260506165517 | 67 | 360 | 5.2 | 9.6 | 0.00 | 0.00 | 0.00 | 82 | 1012.9 |
| 20260506165421 | 67 | 360 | 6.1 | 9.6 | 0.00 | 0.00 | 0.00 | 82 | 1012.9 |
| 20260506165322 | 67 | 360 | 5.2 | 9.6 | 0.00 | 0.00 | 0.00 | 82 | 1013.0 |
| 20260506165222 | 67 | 360 | 5.2 | 9.6 | 0.00 | 0.00 | 0.00 | 83 | 1012.9 |
| 20260506165123 | 67 | 360 | 4.3 | 10.4 | 0.00 | 0.00 | 0.00 | 83 | 1012.9 |
| 20260506165023 | 67 | 360 | 4.3 | 10.4 | 0.00 | 0.00 | 0.00 | 83 | 1013.0 |
| 20260506164924 | 67 | 360 | 3.5 | 12.2 | 0.00 | 0.00 | 0.00 | 83 | 1013.0 |
| 20260506164829 | 67 | 360 | 4.3 | 12.2 | 0.00 | 0.00 | 0.00 | 83 | 1013.0 |
| 20260506164730 | 67 | 360 | 5.2 | 12.2 | 0.00 | 0.00 | 0.00 | 82 | 1013.1 |
| 20260506164632 | 67 | 360 | 5.2 | 12.2 | 0.00 | 0.00 | 0.00 | 83 | 1013.0 |
| 20260506164532 | 67 | 360 | 6.1 | 12.2 | 0.00 | 0.00 | 0.00 | 83 | 1013.2 |
| 20260506164433 | 67 | 360 | 6.1 | 12.2 | 0.00 | 0.00 | 0.00 | 83 | 1013.2 |
| 20260506164334 | 67 | 360 | 7.0 | 12.2 | 0.00 | 0.00 | 0.00 | 83 | 1013.1 |
| 20260506164219 | 67 | 360 | 7.0 | 12.2 | 0.00 | 0.00 | 0.00 | 84 | 1013.1 |
| 20260506164119 | 67 | 360 | 7.0 | 12.2 | 0.00 | 0.00 | 0.00 | 84 | 1013.0 |
| 20260506164019 | 67 | 360 | 6.1 | 10.4 | 0.00 | 0.00 | 0.00 | 84 | 1013.0 |
| 20260506163919 | 67 | 360 | 6.1 | 10.4 | 0.00 | 0.00 | 0.00 | 84 | 1013.1 |
| 20260506163840 | 67 | 360 | 6.1 | 10.4 | 0.00 | 0.00 | 0.00 | 84 | 1013.1 |
| 20260506163719 | 67 | 360 | 7.0 | 10.4 | 0.00 | 0.00 | 0.00 | 84 | 1013.1 |
| 20260506163619 | 66 | 360 | 6.1 | 10.4 | 0.00 | 0.00 | 0.00 | 85 | 1013.1 |
| 20260506163521 | 66 | 360 | 6.1 | 10.4 | 0.00 | 0.00 | 0.00 | 85 | 1013.2 |
| 20260506163424 | 66 | 360 | 6.1 | 12.2 | 0.00 | 0.00 | 0.00 | 85 | 1013.2 |
| 20260506163325 | 66 | 360 | 5.2 | 18.2 | 0.00 | 0.00 | 0.00 | 85 | 1013.3 |
| 20260506163225 | 65 | 360 | 5.2 | 18.2 | 0.00 | 0.00 | 0.00 | 85 | 1013.2 |
| 20260506163126 | 65 | 360 | 5.2 | 18.2 | 0.00 | 0.00 | 0.00 | 85 | 1013.2 |
| 20260506163027 | 65 | 360 | 5.2 | 18.2 | 0.00 | 0.00 | 0.00 | 85 | 1013.3 |
| 20260506162927 | 65 | 360 | 5.2 | 18.2 | 0.00 | 0.00 | 0.00 | 85 | 1013.4 |
| 20260506162826 | 65 | 360 | 6.1 | 18.2 | 0.00 | 0.00 | 0.00 | 85 | 1013.4 |
| 20260506162731 | 65 | 360 | 7.0 | 18.2 | 0.00 | 0.00 | 0.00 | 85 | 1013.4 |
| 20260506162629 | 65 | 360 | 8.7 | 18.2 | 0.00 | 0.00 | 0.00 | 85 | 1013.5 |
| 20260506162530 | 65 | 360 | 9.6 | 18.2 | 0.00 | 0.00 | 0.00 | 85 | 1013.7 |
| 20260506162431 | 65 | 360 | 10.4 | 18.2 | 0.00 | 0.00 | 0.00 | 85 | 1013.7 |
| 20260506162331 | 65 | 360 | 10.4 | 18.2 | 0.00 | 0.00 | 0.00 | 85 | 1013.8 |
| 20260506162232 | 66 | 360 | 9.6 | 18.2 | 0.00 | 0.00 | 0.00 | 84 | 1013.9 |
| 20260506162133 | 66 | 360 | 9.6 | 20.9 | 0.00 | 0.00 | 0.00 | 84 | 1014.0 |
| 20260506162016 | 66 | 360 | 8.7 | 20.9 | 0.00 | 0.00 | 0.00 | 85 | 1014.0 |
| 20260506161917 | 66 | 360 | 8.7 | 20.9 | 0.00 | 0.00 | 0.00 | 85 | 1014.1 |
| 20260506161818 | 66 | 360 | 9.6 | 22.6 | 0.00 | 0.00 | 0.00 | 85 | 1014.1 |
| 20260506161738 | 66 | 360 | 9.6 | 22.6 | 0.00 | 0.00 | 0.00 | 85 | 1014.1 |
| 20260506161617 | 66 | 360 | 9.6 | 22.6 | 0.00 | 0.00 | 0.00 | 85 | 1014.2 |
| 20260506161517 | 66 | 360 | 10.4 | 22.6 | 0.00 | 0.00 | 0.00 | 85 | 1014.2 |
| 20260506161418 | 66 | 360 | 11.3 | 22.6 | 0.00 | 0.00 | 0.00 | 84 | 1014.2 |
| 20260506161322 | 67 | 360 | 12.2 | 22.6 | 0.00 | 0.00 | 0.00 | 84 | 1014.2 |
| 20260506161222 | 67 | 360 | 12.2 | 22.6 | 0.00 | 0.00 | 0.00 | 84 | 1014.3 |
| 20260506161123 | 67 | 360 | 12.2 | 22.6 | 0.00 | 0.00 | 0.00 | 84 | 1014.4 |
| 20260506161022 | 67 | 360 | 12.2 | 22.6 | 0.00 | 0.00 | 0.00 | 84 | 1014.4 |
| 20260506160922 | 67 | 360 | 11.3 | 22.6 | 0.00 | 0.00 | 0.00 | 84 | 1014.4 |
| 20260506160821 | 67 | 360 | 11.3 | 22.6 | 0.00 | 0.00 | 0.00 | 84 | 1014.4 |
| 20260506160722 | 68 | 360 | 10.4 | 15.6 | 0.00 | 0.00 | 0.00 | 84 | 1014.4 |
| 20260506160623 | 68 | 360 | 10.4 | 15.6 | 0.00 | 0.00 | 0.00 | 84 | 1014.3 |
| 20260506160527 | 68 | 360 | 9.6 | 15.6 | 0.00 | 0.00 | 0.00 | 84 | 1014.3 |
| 20260506160427 | 68 | 360 | 8.7 | 16.5 | 0.00 | 0.00 | 0.00 | 84 | 1014.2 |
| 20260506160327 | 68 | 360 | 8.7 | 16.5 | 0.00 | 0.00 | 0.00 | 84 | 1014.1 |
| 20260506160225 | 68 | 360 | 8.7 | 16.5 | 0.00 | 0.00 | 0.00 | 84 | 1013.8 |
| 20260506160126 | 68 | 360 | 8.7 | 16.5 | 0.00 | 0.00 | 0.00 | 84 | 1013.8 |
| 20260506160046 | 68 | 360 | 10.4 | 19.1 | 0.00 | 0.00 | 0.00 | 84 | 1013.4 |
| 20260506155926 | 68 | 360 | 10.4 | 19.1 | 0.00 | 0.00 | 0.00 | 84 | 1013.4 |
| 20260506155830 | 68 | 360 | 11.3 | 19.1 | 0.00 | 0.00 | 0.00 | 83 | 1013.3 |
| 20260506155751 | 69 | 360 | 11.3 | 19.1 | 0.00 | 0.00 | 0.00 | 83 | 1013.3 |
| 20260506155631 | 69 | 360 | 10.4 | 19.1 | 0.00 | 0.00 | 0.00 | 83 | 1013.3 |
| 20260506155530 | 69 | 360 | 11.3 | 19.1 | 0.00 | 0.00 | 0.00 | 83 | 1013.3 |
| 20260506155430 | 69 | 360 | 10.4 | 19.1 | 0.00 | 0.00 | 0.00 | 83 | 1013.4 |
| 20260506155331 | 69 | 360 | 10.4 | 19.1 | 0.00 | 0.00 | 0.00 | 83 | 1013.5 |
| 20260506155231 | 70 | 360 | 10.4 | 19.1 | 0.00 | 0.00 | 0.00 | 82 | 1013.5 |
| 20260506155135 | 70 | 360 | 9.6 | 15.6 | 0.00 | 0.00 | 0.00 | 82 | 1013.4 |
| 20260506155035 | 70 | 360 | 8.7 | 13.9 | 0.00 | 0.00 | 0.00 | 82 | 1013.5 |
| 20260506154936 | 71 | 360 | 7.0 | 12.2 | 0.00 | 0.00 | 0.00 | 82 | 1013.4 |
| 20260506154856 | 71 | 360 | 7.0 | 12.2 | 0.00 | 0.00 | 0.00 | 82 | 1013.4 |
| 20260506154733 | 71 | 360 | 7.0 | 12.2 | 0.00 | 0.00 | 0.00 | 82 | 1013.4 |
| 20260506154634 | 72 | 360 | 7.8 | 12.2 | 0.00 | 0.00 | 0.00 | 82 | 1013.3 |
| 20260506154518 | 72 | 360 | 7.8 | 12.2 | 0.00 | 0.00 | 0.00 | 81 | 1013.0 |
| 20260506154419 | 72 | 360 | 8.7 | 12.2 | 0.00 | 0.00 | 0.00 | 81 | 1013.0 |
| 20260506154319 | 73 | 360 | 8.7 | 12.2 | 0.00 | 0.00 | 0.00 | 80 | 1012.9 |
| 20260506154239 | 73 | 360 | 7.8 | 11.3 | 0.00 | 0.00 | 0.00 | 80 | 1012.8 |
| 20260506154118 | 74 | 360 | 7.8 | 11.3 | 0.00 | 0.00 | 0.00 | 80 | 1012.7 |
| 20260506154019 | 74 | 360 | 7.8 | 11.3 | 0.00 | 0.00 | 0.00 | 80 | 1012.8 |
| 20260506153919 | 75 | 360 | 7.0 | 11.3 | 0.00 | 0.00 | 0.00 | 80 | 1012.7 |
| 20260506153823 | 76 | 360 | 6.1 | 11.3 | 0.00 | 0.00 | 0.00 | 82 | 1012.8 |
| 20260506153722 | 77 | 360 | 5.2 | 11.3 | 0.00 | 0.00 | 0.00 | 84 | 1012.8 |
| 20260506153642 | 77 | 360 | 3.5 | 8.7 | 0.00 | 0.00 | 0.00 | 84 | 1012.7 |
| 20260506153522 | 77 | 360 | 2.6 | 7.0 | 0.00 | 0.00 | 0.00 | 85 | 1012.7 |
| 20260506153442 | 77 | 360 | 1.7 | 3.5 | 0.00 | 0.00 | 0.00 | 85 | 1012.7 |
| 20260506153322 | 77 | 360 | 0.9 | 3.5 | 0.00 | 0.00 | 0.00 | 85 | 1012.7 |
| 20260506153223 | 77 | 360 | 0.9 | 3.5 | 0.00 | 0.00 | 0.00 | 85 | 1012.7 |
| 20260506153123 | 77 | 149 | 0.9 | 3.5 | 0.00 | 0.00 | 0.00 | 85 | 1012.7 |
| 20260506153027 | 77 | 360 | 0.0 | 2.6 | 0.00 | 0.00 | 0.00 | 85 | 1012.7 |
| 20260506152927 | 77 | 360 | 0.0 | 2.6 | 0.00 | 0.00 | 0.00 | 85 | 1012.6 |
| 20260506152849 | 77 | 360 | 0.9 | 2.6 | 0.00 | 0.00 | 0.00 | 85 | 1012.6 |
| 20260506152725 | 77 | 360 | 0.9 | 2.6 | 0.00 | 0.00 | 0.00 | 85 | 1012.6 |
| 20260506152626 | 77 | 360 | 0.9 | 2.6 | 0.00 | 0.00 | 0.00 | 85 | 1012.6 |
| 20260506152525 | 77 | 360 | 1.7 | 2.6 | 0.00 | 0.00 | 0.00 | 85 | 1012.5 |
| 20260506152426 | 77 | 360 | 1.7 | 2.6 | 0.00 | 0.00 | 0.00 | 85 | 1012.5 |
| 20260506152325 | 77 | 360 | 1.7 | 2.6 | 0.00 | 0.00 | 0.00 | 85 | 1012.3 |
| 20260506152230 | 77 | 360 | 0.9 | 2.6 | 0.00 | 0.00 | 0.00 | 85 | 1012.3 |
| 20260506152131 | 77 | 360 | 0.9 | 2.6 | 0.00 | 0.00 | 0.00 | 85 | 1012.3 |
| 20260506152031 | 77 | 360 | 0.9 | 2.6 | 0.00 | 0.00 | 0.00 | 85 | 1012.1 |
| 20260506151931 | 77 | 360 | 0.9 | 2.6 | 0.00 | 0.00 | 0.00 | 85 | 1012.1 |
| 20260506151831 | 77 | 360 | 0.9 | 2.6 | 0.00 | 0.00 | 0.00 | 85 | 1012.0 |
| 20260506151732 | 77 | 360 | 0.9 | 3.5 | 0.00 | 0.00 | 0.00 | 85 | 1012.0 |
| 20260506151633 | 77 | 360 | 1.7 | 3.5 | 0.00 | 0.00 | 0.00 | 85 | 1012.0 |
| 20260506151558 | 77 | 360 | 1.7 | 3.5 | 0.00 | 0.00 | 0.00 | 85 | 1012.0 |
| 20260506151457 | 77 | 360 | 1.7 | 3.5 | 0.00 | 0.00 | 0.00 | 85 | 1012.1 |
| 20260506151316 | 77 | 360 | 1.7 | 3.5 | 0.00 | 0.00 | 0.00 | 85 | 1012.2 |
| 20260506151217 | 77 | 360 | 1.7 | 3.5 | 0.00 | 0.00 | 0.00 | 85 | 1012.2 |
| 20260506151118 | 77 | 360 | 1.7 | 3.5 | 0.00 | 0.00 | 0.00 | 85 | 1012.2 |
| 20260506151018 | 77 | 360 | 2.6 | 3.5 | 0.00 | 0.00 | 0.00 | 85 | 1012.1 |
| 20260506150918 | 77 | 360 | 2.6 | 3.5 | 0.00 | 0.00 | 0.00 | 85 | 1012.1 |
| 20260506150843 | 77 | 360 | 1.7 | 3.5 | 0.00 | 0.00 | 0.00 | 85 | 1012.0 |
| 20260506150722 | 77 | 360 | 0.9 | 3.5 | 0.00 | 0.00 | 0.00 | 85 | 1012.0 |
| 20260506150622 | 77 | 360 | 0.9 | 4.3 | 0.00 | 0.00 | 0.00 | 85 | 1011.9 |
| 20260506150521 | 77 | 360 | 0.0 | 4.3 | 0.00 | 0.00 | 0.00 | 85 | 1012.0 |
| 20260506150442 | 77 | 360 | 0.9 | 4.3 | 0.00 | 0.00 | 0.00 | 85 | 1012.0 |
| 20260506150321 | 77 | 360 | 0.9 | 4.3 | 0.00 | 0.00 | 0.00 | 85 | 1011.9 |
| 20260506150221 | 77 | 360 | 1.7 | 4.3 | 0.00 | 0.00 | 0.00 | 85 | 1011.9 |
| 20260506150123 | 77 | 360 | 1.7 | 7.0 | 0.00 | 0.00 | 0.00 | 85 | 1011.9 |
| 20260506150027 | 77 | 360 | 2.6 | 7.0 | 0.00 | 0.00 | 0.00 | 85 | 1011.9 |
| 20260506145928 | 77 | 360 | 2.6 | 7.0 | 0.00 | 0.00 | 0.00 | 85 | 1011.9 |
| 20260506145829 | 76 | 360 | 2.6 | 7.0 | 0.00 | 0.00 | 0.00 | 85 | 1011.9 |
| 20260506145731 | 76 | 360 | 2.6 | 7.0 | 0.00 | 0.00 | 0.00 | 85 | 1011.9 |
| 20260506145630 | 76 | 360 | 2.6 | 7.0 | 0.00 | 0.00 | 0.00 | 85 | 1011.8 |
| 20260506145528 | 77 | 360 | 3.5 | 7.0 | 0.00 | 0.00 | 0.00 | 85 | 1011.8 |
| 20260506145429 | 77 | 360 | 4.3 | 7.0 | 0.00 | 0.00 | 0.00 | 85 | 1011.7 |
| 20260506145334 | 77 | 360 | 4.3 | 7.0 | 0.00 | 0.00 | 0.00 | 85 | 1011.7 |
| 20260506145233 | 77 | 360 | 4.3 | 7.0 | 0.00 | 0.00 | 0.00 | 85 | 1011.7 |
| 20260506145133 | 77 | 360 | 4.3 | 7.0 | 0.00 | 0.00 | 0.00 | 85 | 1011.6 |
| 20260506145034 | 77 | 360 | 3.5 | 7.0 | 0.00 | 0.00 | 0.00 | 85 | 1011.6 |
| 20260506144934 | 77 | 360 | 4.3 | 7.0 | 0.00 | 0.00 | 0.00 | 85 | 1011.6 |
| 20260506144835 | 77 | 360 | 3.5 | 7.0 | 0.00 | 0.00 | 0.00 | 85 | 1011.6 |
| 20260506144719 | 77 | 360 | 3.5 | 7.0 | 0.00 | 0.00 | 0.00 | 85 | 1011.4 |
| 20260506144619 | 77 | 360 | 3.5 | 7.0 | 0.00 | 0.00 | 0.00 | 85 | 1011.4 |
| 20260506144518 | 77 | 360 | 3.5 | 7.0 | 0.00 | 0.00 | 0.00 | 85 | 1011.4 |
| 20260506144418 | 77 | 360 | 4.3 | 7.0 | 0.00 | 0.00 | 0.00 | 85 | 1011.4 |
| 20260506144319 | 77 | 360 | 4.3 | 7.0 | 0.00 | 0.00 | 0.00 | 85 | 1011.5 |
| 20260506144218 | 77 | 360 | 4.3 | 7.0 | 0.00 | 0.00 | 0.00 | 85 | 1011.4 |
| 20260506144119 | 77 | 360 | 4.3 | 7.0 | 0.00 | 0.00 | 0.00 | 85 | 1011.5 |
| 20260506144039 | 76 | 360 | 4.3 | 7.0 | 0.00 | 0.00 | 0.00 | 85 | 1011.5 |
| 20260506143923 | 76 | 360 | 3.5 | 7.0 | 0.00 | 0.00 | 0.00 | 85 | 1011.4 |
| 20260506143823 | 76 | 360 | 3.5 | 7.0 | 0.00 | 0.00 | 0.00 | 85 | 1011.3 |
| 20260506143744 | 76 | 360 | 2.6 | 5.2 | 0.00 | 0.00 | 0.00 | 85 | 1011.3 |
| 20260506143623 | 77 | 360 | 1.7 | 5.2 | 0.00 | 0.00 | 0.00 | 85 | 1011.4 |
| 20260506143523 | 77 | 360 | 0.9 | 5.2 | 0.00 | 0.00 | 0.00 | 85 | 1011.5 |
| 20260506143444 | 77 | 360 | 0.9 | 4.3 | 0.00 | 0.00 | 0.00 | 86 | 1011.5 |
| 20260506143324 | 77 | 360 | 1.7 | 4.3 | 0.00 | 0.00 | 0.00 | 86 | 1011.4 |
| 20260506143228 | 77 | 360 | 1.7 | 4.3 | 0.00 | 0.00 | 0.00 | 86 | 1011.4 |
| 20260506143130 | 77 | 360 | 1.7 | 4.3 | 0.00 | 0.00 | 0.00 | 86 | 1011.4 |
| 20260506143030 | 77 | 360 | 0.9 | 4.3 | 0.00 | 0.00 | 0.00 | 86 | 1011.3 |
| 20260506142931 | 77 | 360 | 0.9 | 4.3 | 0.00 | 0.00 | 0.00 | 86 | 1011.2 |
| 20260506142852 | 76 | 360 | 0.9 | 4.3 | 0.00 | 0.00 | 0.00 | 86 | 1011.3 |
| 20260506142734 | 76 | 360 | 1.7 | 4.3 | 0.00 | 0.00 | 0.00 | 86 | 1011.2 |
| 20260506142632 | 76 | 360 | 1.7 | 4.3 | 0.00 | 0.00 | 0.00 | 86 | 1011.2 |
| 20260506142552 | 76 | 360 | 2.6 | 7.8 | 0.00 | 0.00 | 0.00 | 86 | 1011.2 |
| 20260506142435 | 76 | 360 | 2.6 | 7.8 | 0.00 | 0.00 | 0.00 | 87 | 1011.1 |
| 20260506142334 | 76 | 360 | 2.6 | 7.8 | 0.00 | 0.00 | 0.00 | 87 | 1011.1 |
| 20260506142235 | 76 | 360 | 2.6 | 7.8 | 0.00 | 0.00 | 0.00 | 87 | 1011.0 |
| 20260506142134 | 76 | 360 | 3.5 | 7.8 | 0.00 | 0.00 | 0.00 | 86 | 1010.9 |
| 20260506142035 | 76 | 360 | 3.5 | 7.8 | 0.00 | 0.00 | 0.00 | 86 | 1010.9 |
| 20260506141955 | 76 | 360 | 4.3 | 7.8 | 0.00 | 0.00 | 0.00 | 86 | 1010.9 |
| 20260506141834 | 76 | 360 | 4.3 | 7.8 | 0.00 | 0.00 | 0.00 | 86 | 1010.8 |
| 20260506141718 | 76 | 360 | 4.3 | 7.8 | 0.00 | 0.00 | 0.00 | 86 | 1010.8 |
| 20260506141619 | 76 | 360 | 5.2 | 7.8 | 0.00 | 0.00 | 0.00 | 86 | 1010.9 |
| 20260506141519 | 76 | 360 | 5.2 | 7.0 | 0.00 | 0.00 | 0.00 | 86 | 1010.9 |
| 20260506141420 | 76 | 360 | 5.2 | 7.0 | 0.00 | 0.00 | 0.00 | 86 | 1011.0 |
| 20260506141321 | 76 | 360 | 5.2 | 7.0 | 0.00 | 0.00 | 0.00 | 86 | 1011.0 |
| 20260506141223 | 76 | 360 | 4.3 | 7.0 | 0.00 | 0.00 | 0.00 | 86 | 1011.1 |
| 20260506141124 | 76 | 360 | 4.3 | 7.0 | 0.00 | 0.00 | 0.00 | 86 | 1011.2 |
| 20260506141027 | 76 | 360 | 3.5 | 5.2 | 0.00 | 0.00 | 0.00 | 86 | 1011.2 |
| 20260506140928 | 76 | 360 | 2.6 | 4.3 | 0.00 | 0.00 | 0.00 | 87 | 1011.3 |
| 20260506140827 | 76 | 360 | 2.6 | 4.3 | 0.00 | 0.00 | 0.00 | 87 | 1011.2 |
| 20260506140726 | 76 | 360 | 2.6 | 4.3 | 0.00 | 0.00 | 0.00 | 87 | 1011.3 |
| 20260506140626 | 76 | 360 | 2.6 | 4.3 | 0.00 | 0.00 | 0.00 | 87 | 1011.3 |
| 20260506140527 | 76 | 360 | 2.6 | 4.3 | 0.00 | 0.00 | 0.00 | 87 | 1011.3 |
| 20260506140427 | 76 | 360 | 2.6 | 4.3 | 0.00 | 0.00 | 0.00 | 87 | 1011.4 |
| 20260506140347 | 76 | 360 | 2.6 | 4.3 | 0.00 | 0.00 | 0.00 | 87 | 1011.4 |
| 20260506140251 | 76 | 360 | 2.6 | 4.3 | 0.00 | 0.00 | 0.00 | 87 | 1011.5 |
| 20260506140130 | 76 | 360 | 1.7 | 4.3 | 0.00 | 0.00 | 0.00 | 87 | 1011.5 |
| 20260506140030 | 76 | 360 | 1.7 | 4.3 | 0.00 | 0.00 | 0.00 | 87 | 1011.5 |
| 20260506135931 | 76 | 360 | 1.7 | 7.0 | 0.00 | 0.00 | 0.00 | 87 | 1011.4 |
| 20260506135832 | 76 | 360 | 1.7 | 7.0 | 0.00 | 0.00 | 0.00 | 87 | 1011.4 |
| 20260506135733 | 76 | 360 | 1.7 | 7.0 | 0.00 | 0.00 | 0.00 | 87 | 1011.5 |
| 20260506135618 | 76 | 360 | 1.7 | 7.0 | 0.00 | 0.00 | 0.00 | 87 | 1011.4 |
| 20260506135518 | 76 | 360 | 1.7 | 7.8 | 0.00 | 0.00 | 0.00 | 87 | 1011.4 |
| 20260506135418 | 76 | 360 | 1.7 | 7.8 | 0.00 | 0.00 | 0.00 | 87 | 1011.2 |
| 20260506135319 | 76 | 360 | 2.6 | 9.6 | 0.00 | 0.00 | 0.00 | 87 | 1011.2 |
| 20260506135218 | 76 | 360 | 3.5 | 9.6 | 0.00 | 0.00 | 0.00 | 87 | 1011.2 |
| 20260506135139 | 76 | 360 | 4.3 | 9.6 | 0.00 | 0.00 | 0.00 | 87 | 1011.1 |
| 20260506135017 | 76 | 360 | 4.3 | 9.6 | 0.00 | 0.00 | 0.00 | 87 | 1011.0 |
| 20260506134917 | 76 | 360 | 4.3 | 9.6 | 0.00 | 0.00 | 0.00 | 87 | 1010.9 |
| 20260506134822 | 76 | 360 | 5.2 | 9.6 | 0.00 | 0.00 | 0.00 | 87 | 1010.8 |
| 20260506134721 | 76 | 360 | 6.1 | 9.6 | 0.00 | 0.00 | 0.00 | 87 | 1010.7 |
| 20260506134623 | 75 | 360 | 6.1 | 9.6 | 0.00 | 0.00 | 0.00 | 87 | 1010.6 |
| 20260506134523 | 75 | 360 | 7.0 | 9.6 | 0.00 | 0.00 | 0.00 | 87 | 1010.6 |
| 20260506134444 | 75 | 360 | 7.0 | 9.6 | 0.00 | 0.00 | 0.00 | 87 | 1010.6 |
| 20260506134323 | 75 | 360 | 6.1 | 9.6 | 0.00 | 0.00 | 0.00 | 87 | 1010.6 |
| 20260506134244 | 75 | 360 | 5.2 | 9.6 | 0.00 | 0.00 | 0.00 | 87 | 1010.6 |
| 20260506134127 | 75 | 360 | 4.3 | 9.6 | 0.00 | 0.00 | 0.00 | 87 | 1010.6 |
| 20260506134027 | 75 | 360 | 3.5 | 7.8 | 0.00 | 0.00 | 0.00 | 88 | 1010.7 |
| 20260506133948 | 75 | 360 | 3.5 | 7.0 | 0.00 | 0.00 | 0.00 | 88 | 1010.7 |
| 20260506133829 | 75 | 360 | 3.5 | 7.8 | 0.00 | 0.00 | 0.00 | 88 | 1010.7 |
| 20260506133730 | 75 | 360 | 4.3 | 7.8 | 0.00 | 0.00 | 0.00 | 88 | 1010.7 |
| 20260506133630 | 75 | 360 | 4.3 | 7.8 | 0.00 | 0.00 | 0.00 | 88 | 1010.6 |
| 20260506133527 | 75 | 360 | 4.3 | 7.8 | 0.00 | 0.00 | 0.00 | 88 | 1010.7 |
| 20260506133448 | 75 | 360 | 3.5 | 7.8 | 0.00 | 0.00 | 0.00 | 88 | 1010.6 |
| 20260506133331 | 75 | 360 | 3.5 | 7.8 | 0.00 | 0.00 | 0.00 | 88 | 1010.6 |
| 20260506133232 | 75 | 360 | 3.5 | 7.8 | 0.00 | 0.00 | 0.00 | 88 | 1010.6 |
| 20260506133133 | 75 | 360 | 4.3 | 7.8 | 0.00 | 0.00 | 0.00 | 88 | 1010.6 |
| 20260506133032 | 75 | 360 | 4.3 | 7.8 | 0.00 | 0.00 | 0.00 | 88 | 1010.7 |
| 20260506132933 | 75 | 360 | 4.3 | 7.8 | 0.00 | 0.00 | 0.00 | 88 | 1010.6 |
| 20260506132835 | 75 | 360 | 4.3 | 7.8 | 0.00 | 0.00 | 0.00 | 88 | 1010.6 |
| 20260506132719 | 75 | 360 | 5.2 | 7.8 | 0.00 | 0.00 | 0.00 | 88 | 1010.6 |
| 20260506132619 | 75 | 360 | 4.3 | 7.8 | 0.00 | 0.00 | 0.00 | 88 | 1010.6 |
| 20260506132520 | 75 | 360 | 4.3 | 7.8 | 0.00 | 0.00 | 0.00 | 88 | 1010.6 |
| 20260506132421 | 75 | 360 | 4.3 | 7.8 | 0.00 | 0.00 | 0.00 | 88 | 1010.5 |
| 20260506132342 | 75 | 360 | 4.3 | 7.8 | 0.00 | 0.00 | 0.00 | 88 | 1010.5 |
| 20260506132221 | 75 | 360 | 4.3 | 7.8 | 0.00 | 0.00 | 0.00 | 88 | 1010.5 |
| 20260506132122 | 75 | 360 | 4.3 | 7.8 | 0.00 | 0.00 | 0.00 | 88 | 1010.5 |
| 20260506132027 | 75 | 360 | 4.3 | 7.8 | 0.00 | 0.00 | 0.00 | 89 | 1010.5 |
| 20260506131927 | 75 | 360 | 3.5 | 4.3 | 0.00 | 0.00 | 0.00 | 89 | 1010.5 |
| 20260506131827 | 75 | 360 | 3.5 | 7.8 | 0.00 | 0.00 | 0.00 | 89 | 1010.4 |
| 20260506131727 | 75 | 360 | 2.6 | 11.3 | 0.00 | 0.00 | 0.00 | 89 | 1010.5 |
| 20260506131648 | 75 | 360 | 2.6 | 11.3 | 0.00 | 0.00 | 0.00 | 89 | 1010.5 |
| 20260506131528 | 75 | 360 | 2.6 | 11.3 | 0.00 | 0.00 | 0.00 | 89 | 1010.5 |
| 20260506131428 | 75 | 360 | 2.6 | 11.3 | 0.00 | 0.00 | 0.00 | 89 | 1010.6 |
| 20260506131332 | 75 | 360 | 3.5 | 11.3 | 0.00 | 0.00 | 0.00 | 89 | 1010.5 |
| 20260506131253 | 75 | 360 | 5.2 | 11.3 | 0.00 | 0.00 | 0.00 | 89 | 1010.6 |
| 20260506131152 | 75 | 360 | 6.1 | 11.3 | 0.00 | 0.00 | 0.00 | 89 | 1010.5 |
| 20260506131031 | 75 | 360 | 7.0 | 11.3 | 0.00 | 0.00 | 0.00 | 89 | 1010.4 |
| 20260506130932 | 75 | 360 | 7.0 | 10.4 | 0.00 | 0.00 | 0.00 | 89 | 1010.5 |
| 20260506130833 | 75 | 360 | 5.2 | 9.6 | 0.00 | 0.00 | 0.00 | 89 | 1010.4 |
| 20260506130734 | 75 | 360 | 4.3 | 8.7 | 0.00 | 0.00 | 0.00 | 89 | 1010.4 |
| 20260506130619 | 75 | 360 | 3.5 | 7.0 | 0.00 | 0.00 | 0.00 | 89 | 1010.4 |
| 20260506130519 | 75 | 360 | 2.6 | 7.0 | 0.00 | 0.00 | 0.00 | 89 | 1010.5 |
| 20260506130419 | 75 | 360 | 3.5 | 7.8 | 0.00 | 0.00 | 0.00 | 89 | 1010.4 |
| 20260506130320 | 75 | 360 | 2.6 | 7.8 | 0.00 | 0.00 | 0.00 | 89 | 1010.5 |
| 20260506130220 | 75 | 360 | 3.5 | 7.8 | 0.00 | 0.00 | 0.00 | 89 | 1010.4 |
| 20260506130121 | 75 | 360 | 3.5 | 7.8 | 0.00 | 0.00 | 0.00 | 89 | 1010.4 |
| 20260506130021 | 75 | 360 | 3.5 | 7.8 | 0.00 | 0.00 | 0.00 | 89 | 1010.4 |
| 20260506125925 | 75 | 360 | 3.5 | 7.8 | 0.00 | 0.00 | 0.00 | 89 | 1010.4 |
| 20260506125826 | 75 | 360 | 3.5 | 7.8 | 0.00 | 0.00 | 0.00 | 89 | 1010.4 |
| 20260506125728 | 75 | 360 | 3.5 | 7.8 | 0.00 | 0.00 | 0.00 | 90 | 1010.4 |
| 20260506125628 | 75 | 360 | 3.5 | 7.8 | 0.00 | 0.00 | 0.00 | 90 | 1010.3 |
| 20260506125527 | 74 | 360 | 3.5 | 7.0 | 0.00 | 0.00 | 0.00 | 90 | 1010.3 |
| 20260506125427 | 74 | 360 | 2.6 | 7.0 | 0.00 | 0.00 | 0.00 | 90 | 1010.3 |
| 20260506125332 | 74 | 360 | 2.6 | 7.0 | 0.00 | 0.00 | 0.00 | 90 | 1010.1 |
| 20260506125232 | 74 | 360 | 3.5 | 7.0 | 0.00 | 0.00 | 0.00 | 90 | 1010.2 |
| 20260506125133 | 74 | 360 | 3.5 | 7.0 | 0.00 | 0.00 | 0.00 | 90 | 1010.2 |
| 20260506125053 | 74 | 360 | 3.5 | 7.0 | 0.00 | 0.00 | 0.00 | 90 | 1010.2 |
| 20260506124932 | 74 | 360 | 3.5 | 7.0 | 0.00 | 0.00 | 0.00 | 90 | 1010.2 |
| 20260506124832 | 74 | 360 | 3.5 | 7.0 | 0.00 | 0.00 | 0.00 | 90 | 1010.2 |
| 20260506124733 | 74 | 360 | 3.5 | 7.0 | 0.00 | 0.00 | 0.00 | 90 | 1010.2 |
| 20260506124617 | 74 | 360 | 2.6 | 5.2 | 0.00 | 0.00 | 0.00 | 90 | 1010.2 |
| 20260506124517 | 74 | 360 | 2.6 | 5.2 | 0.00 | 0.00 | 0.00 | 90 | 1010.2 |
| 20260506124437 | 74 | 360 | 1.7 | 3.5 | 0.00 | 0.00 | 0.00 | 90 | 1010.2 |
| 20260506124317 | 74 | 360 | 1.7 | 3.5 | 0.00 | 0.00 | 0.00 | 90 | 1010.1 |
| 20260506124238 | 74 | 360 | 1.7 | 3.5 | 0.00 | 0.00 | 0.00 | 90 | 1010.1 |
| 20260506124117 | 74 | 360 | 1.7 | 3.5 | 0.00 | 0.00 | 0.00 | 90 | 1010.2 |
| 20260506124017 | 74 | 360 | 1.7 | 3.5 | 0.00 | 0.00 | 0.00 | 90 | 1010.1 |
| 20260506123938 | 74 | 360 | 1.7 | 3.5 | 0.00 | 0.00 | 0.00 | 90 | 1010.1 |
| 20260506123822 | 74 | 360 | 1.7 | 3.5 | 0.00 | 0.00 | 0.00 | 90 | 1010.2 |
| 20260506123722 | 74 | 360 | 1.7 | 3.5 | 0.00 | 0.00 | 0.00 | 90 | 1010.3 |
| 20260506123643 | 74 | 360 | 1.7 | 3.5 | 0.00 | 0.00 | 0.00 | 90 | 1010.3 |
| 20260506123521 | 74 | 360 | 2.6 | 3.5 | 0.00 | 0.00 | 0.00 | 89 | 1010.3 |
| 20260506123442 | 74 | 360 | 1.7 | 3.5 | 0.00 | 0.00 | 0.00 | 89 | 1010.3 |
| 20260506123322 | 74 | 360 | 2.6 | 3.5 | 0.00 | 0.00 | 0.00 | 89 | 1010.4 |
| 20260506123242 | 74 | 360 | 2.6 | 3.5 | 0.00 | 0.00 | 0.00 | 89 | 1010.4 |
| 20260506123116 | 74 | 360 | 2.6 | 3.5 | 0.00 | 0.00 | 0.00 | 89 | 1010.3 |
| 20260506123041 | 74 | 360 | 2.6 | 3.5 | 0.00 | 0.00 | 0.00 | 89 | 1010.3 |
| 20260506122919 | 74 | 360 | 1.7 | 3.5 | 0.00 | 0.00 | 0.00 | 89 | 1010.2 |
| 20260506122821 | 74 | 360 | 1.7 | 3.5 | 0.00 | 0.00 | 0.00 | 89 | 1010.2 |
| 20260506122722 | 74 | 360 | 1.7 | 3.5 | 0.00 | 0.00 | 0.00 | 89 | 1010.2 |
| 20260506122642 | 74 | 360 | 1.7 | 3.5 | 0.00 | 0.00 | 0.00 | 89 | 1010.2 |
| 20260506122516 | 74 | 360 | 0.9 | 2.6 | 0.00 | 0.00 | 0.00 | 89 | 1010.2 |
| 20260506122417 | 74 | 360 | 0.9 | 2.6 | 0.00 | 0.00 | 0.00 | 89 | 1010.2 |
| 20260506122322 | 74 | 360 | 0.9 | 2.6 | 0.00 | 0.00 | 0.00 | 89 | 1010.2 |
| 20260506122222 | 74 | 360 | 0.9 | 2.6 | 0.00 | 0.00 | 0.00 | 89 | 1010.3 |
| 20260506122122 | 74 | 360 | 0.9 | 2.6 | 0.00 | 0.00 | 0.00 | 89 | 1010.3 |
| 20260506122042 | 74 | 360 | 0.9 | 2.6 | 0.00 | 0.00 | 0.00 | 89 | 1010.3 |
| 20260506121922 | 74 | 360 | 0.9 | 2.6 | 0.00 | 0.00 | 0.00 | 89 | 1010.2 |
| 20260506121844 | 74 | 360 | 0.9 | 2.6 | 0.00 | 0.00 | 0.00 | 89 | 1010.2 |
| 20260506121724 | 74 | 360 | 0.9 | 2.6 | 0.00 | 0.00 | 0.00 | 89 | 1010.2 |
| 20260506121624 | 74 | 360 | 1.7 | 2.6 | 0.00 | 0.00 | 0.00 | 89 | 1010.3 |
| 20260506121549 | 75 | 360 | 1.7 | 2.6 | 0.00 | 0.00 | 0.00 | 89 | 1010.3 |
| 20260506121428 | 74 | 360 | 1.7 | 2.6 | 0.00 | 0.00 | 0.00 | 89 | 1010.3 |
| 20260506121328 | 75 | 360 | 1.7 | 2.6 | 0.00 | 0.00 | 0.00 | 89 | 1010.3 |
| 20260506121229 | 74 | 360 | 1.7 | 2.6 | 0.00 | 0.00 | 0.00 | 89 | 1010.3 |
| 20260506121129 | 75 | 360 | 1.7 | 2.6 | 0.00 | 0.00 | 0.00 | 89 | 1010.3 |
| 20260506121049 | 75 | 360 | 0.9 | 2.6 | 0.00 | 0.00 | 0.00 | 89 | 1010.3 |
| 20260506120928 | 75 | 360 | 0.9 | 2.6 | 0.00 | 0.00 | 0.00 | 89 | 1010.3 |
| 20260506120849 | 74 | 360 | 0.9 | 1.7 | 0.00 | 0.00 | 0.00 | 89 | 1010.3 |
| 20260506120753 | 75 | 360 | 0.9 | 1.7 | 0.00 | 0.00 | 0.00 | 89 | 1010.3 |
| 20260506120652 | 75 | 360 | 0.0 | 1.7 | 0.00 | 0.00 | 0.00 | 89 | 1010.2 |
| 20260506120532 | 75 | 360 | 0.0 | 1.7 | 0.00 | 0.00 | 0.00 | 89 | 1010.3 |
| 20260506120432 | 75 | 360 | 0.0 | 1.7 | 0.00 | 0.00 | 0.00 | 89 | 1010.2 |
| 20260506120333 | 75 | 360 | 0.0 | 1.7 | 0.00 | 0.00 | 0.00 | 88 | 1010.3 |
| 20260506120234 | 75 | 360 | 0.0 | 3.5 | 0.00 | 0.00 | 0.00 | 88 | 1010.3 |
| 20260506120155 | 75 | 360 | 0.0 | 3.5 | 0.00 | 0.00 | 0.00 | 88 | 1010.2 |
| 20260506120055 | 75 | 360 | 0.0 | 3.5 | 0.00 | 0.00 | 0.00 | 88 | 1010.2 |
| 20260506115918 | 75 | 360 | 0.9 | 3.5 | 0.00 | 0.00 | 0.00 | 88 | 1010.2 |
| 20260506115819 | 75 | 360 | 0.9 | 3.5 | 0.00 | 0.00 | 0.00 | 88 | 1010.1 |
| 20260506115718 | 75 | 360 | 0.9 | 3.5 | 0.00 | 0.00 | 0.00 | 88 | 1010.1 |
| 20260506115619 | 75 | 360 | 1.7 | 3.5 | 0.00 | 0.00 | 0.00 | 88 | 1010.1 |
| 20260506115520 | 75 | 360 | 1.7 | 3.5 | 0.00 | 0.00 | 0.00 | 88 | 1010.1 |
| 20260506115420 | 75 | 360 | 1.7 | 3.5 | 0.00 | 0.00 | 0.00 | 88 | 1010.1 |
| 20260506115320 | 75 | 360 | 1.7 | 3.5 | 0.00 | 0.00 | 0.00 | 88 | 1010.1 |
| 20260506115225 | 75 | 360 | 2.6 | 3.5 | 0.00 | 0.00 | 0.00 | 88 | 1010.1 |
| 20260506115125 | 75 | 360 | 2.6 | 3.5 | 0.00 | 0.00 | 0.00 | 88 | 1010.1 |
| 20260506115025 | 75 | 360 | 2.6 | 3.5 | 0.00 | 0.00 | 0.00 | 88 | 1010.1 |
| 20260506114927 | 75 | 360 | 2.6 | 3.5 | 0.00 | 0.00 | 0.00 | 88 | 1010.1 |
| 20260506114848 | 75 | 360 | 1.7 | 3.5 | 0.00 | 0.00 | 0.00 | 88 | 1010.1 |
| 20260506114748 | 75 | 360 | 1.7 | 3.5 | 0.00 | 0.00 | 0.00 | 88 | 1010.1 |
| 20260506114626 | 75 | 360 | 0.9 | 3.5 | 0.00 | 0.00 | 0.00 | 88 | 1010.1 |
| 20260506114531 | 75 | 360 | 0.9 | 3.5 | 0.00 | 0.00 | 0.00 | 88 | 1010.1 |
| 20260506114432 | 75 | 360 | 0.0 | 2.6 | 0.00 | 0.00 | 0.00 | 88 | 1010.0 |
| 20260506114331 | 75 | 360 | 0.0 | 0.0 | 0.00 | 0.00 | 0.00 | 88 | 1010.1 |
| 20260506114233 | 75 | 360 | 0.0 | 0.0 | 0.00 | 0.00 | 0.00 | 88 | 1010.2 |
| 20260506114153 | 75 | 360 | 0.0 | 0.0 | 0.00 | 0.00 | 0.00 | 88 | 1010.1 |
| 20260506114053 | 75 | 360 | 0.0 | 0.0 | 0.00 | 0.00 | 0.00 | 88 | 1010.1 |
| 20260506113953 | 75 | 360 | 0.0 | 2.6 | 0.00 | 0.00 | 0.00 | 88 | 1010.1 |
| 20260506113832 | 75 | 360 | 0.0 | 2.6 | 0.00 | 0.00 | 0.00 | 88 | 1010.1 |
| 20260506113717 | 75 | 360 | 0.0 | 2.6 | 0.00 | 0.00 | 0.00 | 88 | 1010.1 |
| 20260506113618 | 75 | 360 | 0.0 | 2.6 | 0.00 | 0.00 | 0.00 | 88 | 1010.1 |
| 20260506113519 | 75 | 360 | 0.0 | 2.6 | 0.00 | 0.00 | 0.00 | 88 | 1010.1 |
| 20260506113420 | 75 | 360 | 0.0 | 2.6 | 0.00 | 0.00 | 0.00 | 88 | 1010.3 |
| 20260506113319 | 75 | 360 | 0.0 | 2.6 | 0.00 | 0.00 | 0.00 | 88 | 1010.3 |
| 20260506113219 | 75 | 360 | 0.0 | 2.6 | 0.00 | 0.00 | 0.00 | 88 | 1010.2 |
| 20260506113140 | 75 | 360 | 0.0 | 2.6 | 0.00 | 0.00 | 0.00 | 88 | 1010.1 |
| 20260506113024 | 75 | 360 | 0.0 | 2.6 | 0.00 | 0.00 | 0.00 | 88 | 1010.2 |
| 20260506112924 | 75 | 360 | 0.0 | 2.6 | 0.00 | 0.00 | 0.00 | 88 | 1010.2 |
| 20260506112826 | 75 | 360 | 0.0 | 2.6 | 0.00 | 0.00 | 0.00 | 88 | 1010.2 |
| 20260506112725 | 75 | 360 | 0.9 | 2.6 | 0.00 | 0.00 | 0.00 | 88 | 1010.1 |
| 20260506112646 | 75 | 360 | 0.9 | 2.6 | 0.00 | 0.00 | 0.00 | 88 | 1010.2 |
| 20260506112527 | 75 | 360 | 0.9 | 2.6 | 0.00 | 0.00 | 0.00 | 88 | 1010.1 |
| 20260506112428 | 75 | 360 | 0.9 | 2.6 | 0.00 | 0.00 | 0.00 | 88 | 1010.2 |
| 20260506112332 | 75 | 360 | 0.9 | 2.6 | 0.00 | 0.00 | 0.00 | 88 | 1010.1 |
| 20260506112233 | 75 | 360 | 1.7 | 2.6 | 0.00 | 0.00 | 0.00 | 88 | 1010.2 |
| 20260506112133 | 75 | 360 | 1.7 | 3.5 | 0.00 | 0.00 | 0.00 | 88 | 1010.2 |
| 20260506112034 | 75 | 360 | 1.7 | 3.5 | 0.00 | 0.00 | 0.00 | 88 | 1010.2 |
| 20260506111935 | 75 | 360 | 1.7 | 3.5 | 0.00 | 0.00 | 0.00 | 88 | 1010.1 |
| 20260506111835 | 75 | 360 | 1.7 | 2.6 | 0.00 | 0.00 | 0.00 | 88 | 1010.1 |
| 20260506111720 | 75 | 360 | 0.9 | 2.6 | 0.00 | 0.00 | 0.00 | 88 | 1010.2 |
| 20260506111621 | 75 | 360 | 0.9 | 2.6 | 0.00 | 0.00 | 0.00 | 88 | 1010.2 |
| 20260506111522 | 75 | 360 | 0.9 | 2.6 | 0.00 | 0.00 | 0.00 | 88 | 1010.2 |
| 20260506111423 | 75 | 360 | 0.9 | 2.6 | 0.00 | 0.00 | 0.00 | 88 | 1010.2 |
| 20260506111319 | 75 | 360 | 0.9 | 2.6 | 0.00 | 0.00 | 0.00 | 88 | 1010.3 |
| 20260506111219 | 75 | 360 | 0.9 | 2.6 | 0.00 | 0.00 | 0.00 | 88 | 1010.2 |
| 20260506111120 | 75 | 360 | 0.9 | 2.6 | 0.00 | 0.00 | 0.00 | 88 | 1010.2 |
| 20260506111025 | 75 | 360 | 0.9 | 2.6 | 0.00 | 0.00 | 0.00 | 88 | 1010.2 |
| 20260506110925 | 75 | 360 | 0.9 | 2.6 | 0.00 | 0.00 | 0.00 | 88 | 1010.1 |
| 20260506110825 | 75 | 360 | 1.7 | 2.6 | 0.00 | 0.00 | 0.00 | 88 | 1010.1 |
| 20260506110727 | 75 | 360 | 1.7 | 2.6 | 0.00 | 0.00 | 0.00 | 88 | 1010.0 |
| 20260506110627 | 75 | 360 | 1.7 | 2.6 | 0.00 | 0.00 | 0.00 | 88 | 1010.1 |
| 20260506110528 | 75 | 360 | 1.7 | 3.5 | 0.00 | 0.00 | 0.00 | 88 | 1010.0 |
| 20260506110448 | 75 | 360 | 1.7 | 4.3 | 0.00 | 0.00 | 0.00 | 88 | 1010.0 |
| 20260506110331 | 75 | 360 | 1.7 | 4.3 | 0.00 | 0.00 | 0.00 | 88 | 1010.1 |
| 20260506110232 | 75 | 360 | 1.7 | 4.3 | 0.00 | 0.00 | 0.00 | 88 | 1010.1 |
| 20260506110133 | 75 | 360 | 1.7 | 4.3 | 0.00 | 0.00 | 0.00 | 88 | 1010.0 |
| 20260506110034 | 75 | 360 | 1.7 | 4.3 | 0.00 | 0.00 | 0.00 | 88 | 1010.1 |
| 20260506105955 | 75 | 360 | 1.7 | 4.3 | 0.00 | 0.00 | 0.00 | 88 | 1010.0 |
| 20260506105833 | 75 | 360 | 1.7 | 4.3 | 0.00 | 0.00 | 0.00 | 88 | 1010.1 |
| 20260506105754 | 75 | 360 | 1.7 | 4.3 | 0.00 | 0.00 | 0.00 | 88 | 1010.0 |
| 20260506105633 | 75 | 360 | 1.7 | 4.3 | 0.00 | 0.00 | 0.00 | 88 | 1010.0 |
| 20260506105518 | 75 | 360 | 1.7 | 4.3 | 0.00 | 0.00 | 0.00 | 88 | 1010.1 |
| 20260506105438 | 75 | 360 | 1.7 | 5.2 | 0.00 | 0.00 | 0.00 | 88 | 1010.1 |
| 20260506105318 | 75 | 360 | 1.7 | 5.2 | 0.00 | 0.00 | 0.00 | 88 | 1010.0 |
| 20260506105238 | 75 | 360 | 1.7 | 5.2 | 0.00 | 0.00 | 0.00 | 88 | 1010.0 |
| 20260506105117 | 75 | 360 | 2.6 | 5.2 | 0.00 | 0.00 | 0.00 | 88 | 1010.1 |
| 20260506105017 | 75 | 360 | 2.6 | 5.2 | 0.00 | 0.00 | 0.00 | 88 | 1010.1 |
| 20260506104937 | 75 | 360 | 2.6 | 5.2 | 0.00 | 0.00 | 0.00 | 88 | 1010.0 |
| 20260506104816 | 75 | 360 | 2.6 | 5.2 | 0.00 | 0.00 | 0.00 | 88 | 1010.0 |
| 20260506104721 | 75 | 360 | 2.6 | 5.2 | 0.00 | 0.00 | 0.00 | 88 | 1010.0 |
| 20260506104622 | 75 | 360 | 2.6 | 5.2 | 0.00 | 0.00 | 0.00 | 88 | 1009.9 |
| 20260506104523 | 75 | 360 | 2.6 | 5.2 | 0.00 | 0.00 | 0.00 | 88 | 1009.9 |
| 20260506104424 | 75 | 360 | 2.6 | 4.3 | 0.00 | 0.00 | 0.00 | 88 | 1009.9 |
| 20260506104324 | 75 | 360 | 1.7 | 4.3 | 0.00 | 0.00 | 0.00 | 88 | 1009.9 |
| 20260506104225 | 75 | 360 | 1.7 | 4.3 | 0.00 | 0.00 | 0.00 | 88 | 1009.9 |
| 20260506104130 | 75 | 360 | 1.7 | 4.3 | 0.00 | 0.00 | 0.00 | 88 | 1009.9 |
| 20260506104031 | 75 | 360 | 1.7 | 4.3 | 0.00 | 0.00 | 0.00 | 88 | 1009.9 |
| 20260506103931 | 75 | 360 | 1.7 | 7.8 | 0.00 | 0.00 | 0.00 | 88 | 1009.9 |
| 20260506103851 | 75 | 360 | 1.7 | 7.8 | 0.00 | 0.00 | 0.00 | 88 | 1009.9 |
| 20260506103730 | 75 | 360 | 1.7 | 7.8 | 0.00 | 0.00 | 0.00 | 88 | 1009.9 |
| 20260506103631 | 75 | 360 | 2.6 | 7.8 | 0.00 | 0.00 | 0.00 | 88 | 1009.9 |
| 20260506103531 | 75 | 360 | 1.7 | 7.0 | 0.00 | 0.00 | 0.00 | 88 | 1009.9 |
| 20260506103452 | 75 | 360 | 1.7 | 7.0 | 0.00 | 0.00 | 0.00 | 88 | 1009.9 |
| 20260506103336 | 75 | 360 | 1.7 | 7.0 | 0.00 | 0.00 | 0.00 | 88 | 1009.8 |
| 20260506103216 | 75 | 360 | 1.7 | 7.0 | 0.00 | 0.00 | 0.00 | 88 | 1009.8 |
| 20260506103116 | 75 | 360 | 1.7 | 7.0 | 0.00 | 0.00 | 0.00 | 88 | 1009.7 |
| 20260506103037 | 75 | 360 | 1.7 | 5.2 | 0.00 | 0.00 | 0.00 | 88 | 1009.7 |
| 20260506102958 | 75 | 360 | 1.7 | 3.5 | 0.00 | 0.00 | 0.00 | 88 | 1009.7 |
| 20260506102837 | 75 | 360 | 1.7 | 3.5 | 0.00 | 0.00 | 0.00 | 88 | 1009.7 |
| 20260506102716 | 75 | 360 | 1.7 | 3.5 | 0.00 | 0.00 | 0.00 | 88 | 1009.6 |
| 20260506102641 | 75 | 360 | 0.9 | 3.5 | 0.00 | 0.00 | 0.00 | 88 | 1009.7 |
| 20260506102520 | 75 | 360 | 0.9 | 3.5 | 0.00 | 0.00 | 0.00 | 88 | 1009.7 |
| 20260506102422 | 75 | 360 | 0.9 | 7.0 | 0.00 | 0.00 | 0.00 | 88 | 1009.7 |
| 20260506102323 | 75 | 360 | 0.9 | 7.8 | 0.00 | 0.00 | 0.00 | 88 | 1009.7 |
| 20260506102223 | 75 | 360 | 0.9 | 7.8 | 0.00 | 0.00 | 0.00 | 88 | 1009.7 |
| 20260506102124 | 75 | 360 | 1.7 | 8.7 | 0.00 | 0.00 | 0.00 | 88 | 1009.6 |
| 20260506102024 | 75 | 360 | 1.7 | 8.7 | 0.00 | 0.00 | 0.00 | 88 | 1009.6 |
| 20260506101929 | 75 | 360 | 1.7 | 8.7 | 0.00 | 0.00 | 0.00 | 88 | 1009.6 |
| 20260506101829 | 75 | 360 | 2.6 | 8.7 | 0.00 | 0.00 | 0.00 | 88 | 1009.6 |
| 20260506101729 | 75 | 360 | 4.3 | 8.7 | 0.00 | 0.00 | 0.00 | 88 | 1009.6 |
| 20260506101629 | 75 | 360 | 4.3 | 8.7 | 0.00 | 0.00 | 0.00 | 88 | 1009.5 |
| 20260506101529 | 75 | 360 | 3.5 | 8.7 | 0.00 | 0.00 | 0.00 | 88 | 1009.6 |
| 20260506101430 | 75 | 360 | 3.5 | 8.7 | 0.00 | 0.00 | 0.00 | 88 | 1009.5 |
| 20260506101332 | 75 | 360 | 3.5 | 8.7 | 0.00 | 0.00 | 0.00 | 88 | 1009.5 |
| 20260506101216 | 75 | 360 | 1.7 | 10.4 | 0.00 | 0.00 | 0.00 | 88 | 1009.5 |
| 20260506101116 | 75 | 360 | 1.7 | 10.4 | 0.00 | 0.00 | 0.00 | 88 | 1009.4 |
| 20260506101017 | 75 | 360 | 1.7 | 10.4 | 0.00 | 0.00 | 0.00 | 88 | 1009.4 |
| 20260506100918 | 75 | 360 | 2.6 | 10.4 | 0.00 | 0.00 | 0.00 | 88 | 1009.5 |
| 20260506100838 | 75 | 360 | 3.5 | 10.4 | 0.00 | 0.00 | 0.00 | 88 | 1009.4 |
| 20260506100718 | 75 | 360 | 3.5 | 10.4 | 0.00 | 0.00 | 0.00 | 88 | 1009.4 |
| 20260506100617 | 75 | 360 | 3.5 | 10.4 | 0.00 | 0.00 | 0.00 | 88 | 1009.4 |
| 20260506100523 | 75 | 360 | 3.5 | 10.4 | 0.00 | 0.00 | 0.00 | 88 | 1009.4 |
| 20260506100444 | 75 | 360 | 3.5 | 10.4 | 0.00 | 0.00 | 0.00 | 88 | 1009.4 |
| 20260506100324 | 75 | 360 | 3.5 | 11.3 | 0.00 | 0.00 | 0.00 | 88 | 1009.4 |
| 20260506100245 | 75 | 360 | 3.5 | 11.3 | 0.00 | 0.00 | 0.00 | 88 | 1009.4 |
| 20260506100123 | 75 | 360 | 3.5 | 11.3 | 0.00 | 0.00 | 0.00 | 88 | 1009.3 |
| 20260506100024 | 75 | 360 | 3.5 | 11.3 | 0.00 | 0.00 | 0.00 | 88 | 1009.3 |
| 20260506095925 | 75 | 360 | 3.5 | 11.3 | 0.00 | 0.00 | 0.00 | 88 | 1009.3 |
| 20260506095829 | 75 | 360 | 4.3 | 11.3 | 0.00 | 0.00 | 0.00 | 88 | 1009.4 |
| 20260506095731 | 75 | 360 | 4.3 | 11.3 | 0.00 | 0.00 | 0.00 | 88 | 1009.3 |
| 20260506095630 | 75 | 360 | 4.3 | 11.3 | 0.00 | 0.00 | 0.00 | 88 | 1009.2 |
| 20260506095530 | 75 | 360 | 4.3 | 11.3 | 0.00 | 0.00 | 0.00 | 88 | 1009.4 |
| 20260506095431 | 75 | 360 | 5.2 | 11.3 | 0.00 | 0.00 | 0.00 | 88 | 1009.3 |
| 20260506095332 | 75 | 360 | 6.1 | 11.3 | 0.00 | 0.00 | 0.00 | 88 | 1009.2 |
| 20260506095232 | 75 | 360 | 5.2 | 11.3 | 0.00 | 0.00 | 0.00 | 88 | 1009.2 |
| 20260506095116 | 75 | 360 | 5.2 | 14.8 | 0.00 | 0.00 | 0.00 | 88 | 1009.2 |
| 20260506095017 | 75 | 360 | 4.3 | 14.8 | 0.00 | 0.00 | 0.00 | 88 | 1009.2 |
| 20260506094919 | 75 | 360 | 4.3 | 14.8 | 0.00 | 0.00 | 0.00 | 88 | 1009.2 |
| 20260506094819 | 75 | 360 | 4.3 | 14.8 | 0.00 | 0.00 | 0.00 | 88 | 1009.2 |
| 20260506094719 | 75 | 360 | 3.5 | 14.8 | 0.00 | 0.00 | 0.00 | 88 | 1009.2 |
| 20260506094619 | 75 | 360 | 3.5 | 14.8 | 0.00 | 0.00 | 0.00 | 88 | 1009.2 |
| 20260506094520 | 75 | 360 | 3.5 | 14.8 | 0.00 | 0.00 | 0.00 | 88 | 1009.2 |
| 20260506094423 | 75 | 360 | 3.5 | 14.8 | 0.00 | 0.00 | 0.00 | 88 | 1009.2 |
| 20260506094324 | 75 | 360 | 3.5 | 14.8 | 0.00 | 0.00 | 0.00 | 88 | 1009.1 |
| 20260506094224 | 75 | 360 | 4.3 | 14.8 | 0.00 | 0.00 | 0.00 | 88 | 1009.2 |
| 20260506094126 | 75 | 360 | 5.2 | 14.8 | 0.00 | 0.00 | 0.00 | 88 | 1009.2 |
| 20260506094026 | 75 | 360 | 5.2 | 14.8 | 0.00 | 0.00 | 0.00 | 88 | 1009.1 |
| 20260506093927 | 75 | 360 | 5.2 | 11.3 | 0.00 | 0.00 | 0.00 | 88 | 1009.1 |
| 20260506093827 | 75 | 360 | 5.2 | 11.3 | 0.00 | 0.00 | 0.00 | 88 | 1009.1 |
| 20260506093731 | 75 | 360 | 4.3 | 9.6 | 0.00 | 0.00 | 0.00 | 88 | 1009.1 |
| 20260506093633 | 75 | 360 | 3.5 | 9.6 | 0.00 | 0.00 | 0.00 | 88 | 1009.1 |
| 20260506093533 | 75 | 360 | 3.5 | 9.6 | 0.00 | 0.00 | 0.00 | 88 | 1009.1 |
| 20260506093433 | 75 | 360 | 3.5 | 9.6 | 0.00 | 0.00 | 0.00 | 88 | 1009.1 |
| 20260506093333 | 75 | 360 | 3.5 | 9.6 | 0.00 | 0.00 | 0.00 | 88 | 1009.1 |
| 20260506093253 | 75 | 360 | 3.5 | 9.6 | 0.00 | 0.00 | 0.00 | 88 | 1009.2 |
| 20260506093133 | 75 | 360 | 3.5 | 9.6 | 0.00 | 0.00 | 0.00 | 88 | 1009.2 |
| 20260506093017 | 75 | 360 | 3.5 | 9.6 | 0.00 | 0.00 | 0.00 | 88 | 1009.1 |
| 20260506092938 | 75 | 360 | 3.5 | 9.6 | 0.00 | 0.00 | 0.00 | 88 | 1009.1 |
| 20260506092819 | 75 | 360 | 4.3 | 9.6 | 0.00 | 0.00 | 0.00 | 88 | 1009.1 |
| 20260506092738 | 75 | 360 | 3.5 | 9.6 | 0.00 | 0.00 | 0.00 | 88 | 1009.0 |
| 20260506092618 | 75 | 360 | 3.5 | 10.4 | 0.00 | 0.00 | 0.00 | 88 | 1009.0 |
| 20260506092519 | 75 | 360 | 3.5 | 10.4 | 0.00 | 0.00 | 0.00 | 88 | 1008.9 |
| 20260506092419 | 75 | 360 | 4.3 | 10.4 | 0.00 | 0.00 | 0.00 | 88 | 1008.9 |
| 20260506092324 | 75 | 360 | 3.5 | 10.4 | 0.00 | 0.00 | 0.00 | 88 | 1008.8 |
| 20260506092224 | 75 | 360 | 5.2 | 10.4 | 0.00 | 0.00 | 0.00 | 88 | 1008.9 |
| 20260506092124 | 75 | 360 | 5.2 | 10.4 | 0.00 | 0.00 | 0.00 | 88 | 1008.8 |
| 20260506092025 | 75 | 360 | 5.2 | 13.0 | 0.00 | 0.00 | 0.00 | 88 | 1008.8 |
| 20260506091926 | 75 | 360 | 5.2 | 13.0 | 0.00 | 0.00 | 0.00 | 88 | 1008.8 |
| 20260506091826 | 75 | 360 | 4.3 | 13.0 | 0.00 | 0.00 | 0.00 | 88 | 1008.8 |
| 20260506091726 | 75 | 360 | 4.3 | 13.0 | 0.00 | 0.00 | 0.00 | 88 | 1008.8 |
| 20260506091630 | 75 | 360 | 3.5 | 13.0 | 0.00 | 0.00 | 0.00 | 88 | 1008.9 |
| 20260506091550 | 75 | 360 | 3.5 | 13.0 | 0.00 | 0.00 | 0.00 | 88 | 1008.9 |
| 20260506091430 | 75 | 360 | 4.3 | 13.0 | 0.00 | 0.00 | 0.00 | 88 | 1008.9 |
| 20260506091331 | 75 | 360 | 3.5 | 13.0 | 0.00 | 0.00 | 0.00 | 88 | 1008.9 |
| 20260506091231 | 75 | 360 | 4.3 | 13.0 | 0.00 | 0.00 | 0.00 | 88 | 1008.8 |
| 20260506091152 | 75 | 360 | 4.3 | 13.0 | 0.00 | 0.00 | 0.00 | 88 | 1008.9 |
| 20260506091031 | 75 | 360 | 4.3 | 12.2 | 0.00 | 0.00 | 0.00 | 88 | 1008.8 |
| 20260506090916 | 75 | 360 | 4.3 | 12.2 | 0.00 | 0.00 | 0.00 | 88 | 1008.7 |
| 20260506090817 | 75 | 360 | 4.3 | 11.3 | 0.00 | 0.00 | 0.00 | 88 | 1008.8 |
| 20260506090717 | 75 | 360 | 4.3 | 17.4 | 0.00 | 0.00 | 0.00 | 88 | 1008.8 |
| 20260506090617 | 75 | 360 | 3.5 | 17.4 | 0.00 | 0.00 | 0.00 | 88 | 1008.8 |
| 20260506090518 | 75 | 360 | 3.5 | 17.4 | 0.00 | 0.00 | 0.00 | 88 | 1008.7 |
| 20260506090439 | 75 | 360 | 4.3 | 17.4 | 0.00 | 0.00 | 0.00 | 88 | 1008.7 |
| 20260506090339 | 75 | 360 | 4.3 | 17.4 | 0.00 | 0.00 | 0.00 | 88 | 1008.7 |
| 20260506090223 | 75 | 360 | 5.2 | 20.0 | 0.00 | 0.00 | 0.00 | 88 | 1008.6 |
| 20260506090123 | 75 | 360 | 5.2 | 20.0 | 0.00 | 0.00 | 0.00 | 88 | 1008.7 |
| 20260506090024 | 75 | 360 | 6.1 | 20.0 | 0.00 | 0.00 | 0.00 | 87 | 1008.7 |
| 20260506085926 | 75 | 360 | 6.1 | 20.0 | 0.00 | 0.00 | 0.00 | 87 | 1008.7 |
| 20260506085826 | 75 | 360 | 6.1 | 20.0 | 0.00 | 0.00 | 0.00 | 87 | 1008.7 |
| 20260506085728 | 75 | 360 | 5.2 | 20.0 | 0.00 | 0.00 | 0.00 | 87 | 1008.6 |
| 20260506085627 | 75 | 360 | 7.0 | 20.0 | 0.00 | 0.00 | 0.00 | 87 | 1008.7 |
| 20260506085530 | 75 | 360 | 6.1 | 20.0 | 0.00 | 0.00 | 0.00 | 87 | 1008.6 |
| 20260506085431 | 75 | 360 | 6.1 | 17.4 | 0.00 | 0.00 | 0.00 | 87 | 1008.6 |
| 20260506085331 | 75 | 360 | 6.1 | 15.6 | 0.00 | 0.00 | 0.00 | 87 | 1008.7 |
| 20260506085231 | 75 | 360 | 6.1 | 15.6 | 0.00 | 0.00 | 0.00 | 87 | 1008.7 |
| 20260506085132 | 75 | 360 | 5.2 | 15.6 | 0.00 | 0.00 | 0.00 | 87 | 1008.7 |
| 20260506085033 | 75 | 360 | 6.1 | 15.6 | 0.00 | 0.00 | 0.00 | 87 | 1008.7 |
| 20260506084917 | 75 | 360 | 5.2 | 15.6 | 0.00 | 0.00 | 0.00 | 87 | 1008.8 |
| 20260506084818 | 75 | 360 | 6.1 | 15.6 | 0.00 | 0.00 | 0.00 | 87 | 1008.8 |
| 20260506084718 | 75 | 360 | 6.1 | 15.6 | 0.00 | 0.00 | 0.00 | 87 | 1008.8 |
| 20260506084618 | 75 | 360 | 6.1 | 15.6 | 0.00 | 0.00 | 0.00 | 87 | 1008.8 |
| 20260506084538 | 75 | 360 | 6.1 | 15.6 | 0.00 | 0.00 | 0.00 | 87 | 1008.7 |
| 20260506084417 | 75 | 360 | 6.1 | 15.6 | 0.00 | 0.00 | 0.00 | 87 | 1008.8 |
| 20260506084318 | 75 | 360 | 7.0 | 16.5 | 0.00 | 0.00 | 0.00 | 87 | 1008.7 |
| 20260506084224 | 75 | 360 | 6.1 | 16.5 | 0.00 | 0.00 | 0.00 | 87 | 1008.7 |
| 20260506084143 | 75 | 360 | 4.3 | 16.5 | 0.00 | 0.00 | 0.00 | 87 | 1008.8 |
| 20260506084043 | 75 | 360 | 5.2 | 16.5 | 0.00 | 0.00 | 0.00 | 87 | 1008.7 |
| 20260506083924 | 75 | 360 | 5.2 | 16.5 | 0.00 | 0.00 | 0.00 | 87 | 1008.7 |
| 20260506083824 | 75 | 360 | 4.3 | 16.5 | 0.00 | 0.00 | 0.00 | 87 | 1008.7 |
| 20260506083744 | 75 | 360 | 4.3 | 16.5 | 0.00 | 0.00 | 0.00 | 87 | 1008.7 |
| 20260506083624 | 75 | 360 | 4.3 | 16.5 | 0.00 | 0.00 | 0.00 | 87 | 1008.6 |
| 20260506083525 | 75 | 360 | 6.1 | 16.5 | 0.00 | 0.00 | 0.00 | 87 | 1008.6 |
| 20260506083429 | 75 | 360 | 6.1 | 16.5 | 0.00 | 0.00 | 0.00 | 87 | 1008.7 |
| 20260506083330 | 75 | 360 | 6.1 | 16.5 | 0.00 | 0.00 | 0.00 | 87 | 1008.7 |
| 20260506083229 | 75 | 360 | 6.1 | 16.5 | 0.00 | 0.00 | 0.00 | 87 | 1008.7 |
| 20260506083130 | 75 | 360 | 7.0 | 16.5 | 0.00 | 0.00 | 0.00 | 87 | 1008.7 |
| 20260506083031 | 75 | 360 | 6.1 | 12.2 | 0.00 | 0.00 | 0.00 | 87 | 1008.7 |
| 20260506082932 | 75 | 360 | 5.2 | 12.2 | 0.00 | 0.00 | 0.00 | 87 | 1008.6 |
| 20260506082817 | 75 | 360 | 6.1 | 13.9 | 0.00 | 0.00 | 0.00 | 87 | 1008.5 |
| 20260506082717 | 75 | 360 | 6.1 | 13.9 | 0.00 | 0.00 | 0.00 | 87 | 1008.5 |
| 20260506082618 | 75 | 360 | 6.1 | 13.9 | 0.00 | 0.00 | 0.00 | 87 | 1008.6 |
| 20260506082517 | 75 | 360 | 6.1 | 13.9 | 0.00 | 0.00 | 0.00 | 87 | 1008.6 |
| 20260506082417 | 75 | 360 | 5.2 | 15.6 | 0.00 | 0.00 | 0.00 | 87 | 1008.7 |
| 20260506082318 | 75 | 360 | 5.2 | 15.6 | 0.00 | 0.00 | 0.00 | 87 | 1008.6 |
| 20260506082218 | 75 | 360 | 6.1 | 15.6 | 0.00 | 0.00 | 0.00 | 87 | 1008.6 |
| 20260506082123 | 75 | 360 | 7.0 | 15.6 | 0.00 | 0.00 | 0.00 | 87 | 1008.7 |
| 20260506082023 | 75 | 360 | 7.8 | 15.6 | 0.00 | 0.00 | 0.00 | 87 | 1008.7 |
| 20260506081923 | 75 | 360 | 7.8 | 15.6 | 0.00 | 0.00 | 0.00 | 87 | 1008.7 |
| 20260506081823 | 75 | 360 | 7.0 | 15.6 | 0.00 | 0.00 | 0.00 | 87 | 1008.7 |
| 20260506081724 | 75 | 360 | 7.0 | 15.6 | 0.00 | 0.00 | 0.00 | 87 | 1008.7 |
| 20260506081623 | 75 | 360 | 7.8 | 15.6 | 0.00 | 0.00 | 0.00 | 87 | 1008.7 |
| 20260506081524 | 75 | 360 | 7.0 | 15.6 | 0.00 | 0.00 | 0.00 | 87 | 1008.7 |
| 20260506081428 | 75 | 360 | 5.2 | 14.8 | 0.00 | 0.00 | 0.00 | 87 | 1008.7 |
| 20260506081327 | 75 | 360 | 5.2 | 13.9 | 0.00 | 0.00 | 0.00 | 87 | 1008.8 |
| 20260506081228 | 75 | 360 | 5.2 | 13.9 | 0.00 | 0.00 | 0.00 | 87 | 1008.8 |
| 20260506081148 | 75 | 360 | 5.2 | 13.9 | 0.00 | 0.00 | 0.00 | 87 | 1008.8 |
| 20260506081048 | 75 | 360 | 5.2 | 16.5 | 0.00 | 0.00 | 0.00 | 87 | 1008.9 |
| 20260506080928 | 75 | 360 | 5.2 | 16.5 | 0.00 | 0.00 | 0.00 | 87 | 1008.8 |
| 20260506080828 | 75 | 360 | 5.2 | 16.5 | 0.00 | 0.00 | 0.00 | 87 | 1008.8 |
| 20260506080728 | 75 | 360 | 5.2 | 16.5 | 0.00 | 0.00 | 0.00 | 87 | 1008.8 |
| 20260506080633 | 75 | 360 | 5.2 | 16.5 | 0.00 | 0.00 | 0.00 | 87 | 1008.9 |
| 20260506080550 | 75 | 360 | 5.2 | 16.5 | 0.00 | 0.00 | 0.00 | 87 | 1008.9 |
| 20260506080430 | 75 | 360 | 6.1 | 16.5 | 0.00 | 0.00 | 0.00 | 87 | 1008.9 |
| 20260506080332 | 75 | 360 | 6.1 | 16.5 | 0.00 | 0.00 | 0.00 | 87 | 1008.9 |
| 20260506080233 | 75 | 360 | 7.0 | 16.5 | 0.00 | 0.00 | 0.00 | 87 | 1008.8 |
| 20260506080133 | 75 | 360 | 7.8 | 16.5 | 0.00 | 0.00 | 0.00 | 87 | 1008.9 |
| 20260506073448 | 75 | 360 | 7.0 | 14.8 | 0.00 | 0.00 | 0.00 | 87 | 1009.1 |
| 20260506073329 | 75 | 360 | 6.1 | 13.9 | 0.00 | 0.00 | 0.00 | 87 | 1009.1 |
| 20260506073230 | 75 | 360 | 7.0 | 13.9 | 0.00 | 0.00 | 0.00 | 87 | 1009.1 |
| 20260506073130 | 75 | 360 | 7.0 | 13.9 | 0.00 | 0.00 | 0.00 | 87 | 1009.1 |
| 20260506073030 | 75 | 360 | 7.8 | 14.8 | 0.00 | 0.00 | 0.00 | 87 | 1009.1 |
| 20260506072930 | 75 | 360 | 8.7 | 14.8 | 0.00 | 0.00 | 0.00 | 87 | 1009.1 |
| 20260506072831 | 75 | 360 | 8.7 | 14.8 | 0.00 | 0.00 | 0.00 | 87 | 1009.2 |
| 20260506072736 | 75 | 360 | 8.7 | 14.8 | 0.00 | 0.00 | 0.00 | 87 | 1009.2 |
| 20260506072617 | 75 | 360 | 8.7 | 17.4 | 0.00 | 0.00 | 0.00 | 87 | 1009.1 |
| 20260506072517 | 75 | 360 | 7.8 | 17.4 | 0.00 | 0.00 | 0.00 | 87 | 1009.1 |
| 20260506072417 | 75 | 360 | 7.8 | 17.4 | 0.00 | 0.00 | 0.00 | 87 | 1009.1 |
| 20260506072318 | 75 | 360 | 7.8 | 17.4 | 0.00 | 0.00 | 0.00 | 87 | 1009.2 |
| 20260506072218 | 75 | 360 | 7.8 | 17.4 | 0.00 | 0.00 | 0.00 | 87 | 1009.2 |
| 20260506072119 | 75 | 360 | 7.0 | 17.4 | 0.00 | 0.00 | 0.00 | 87 | 1009.2 |
| 20260506072024 | 75 | 360 | 7.8 | 17.4 | 0.00 | 0.00 | 0.00 | 87 | 1009.2 |
| 20260506071924 | 75 | 360 | 7.8 | 17.4 | 0.00 | 0.00 | 0.00 | 87 | 1009.4 |
| 20260506071825 | 75 | 360 | 7.8 | 17.4 | 0.00 | 0.00 | 0.00 | 87 | 1009.4 |
| 20260506071726 | 75 | 360 | 7.8 | 17.4 | 0.00 | 0.00 | 0.00 | 87 | 1009.3 |
| 20260506071646 | 75 | 360 | 7.0 | 17.4 | 0.00 | 0.00 | 0.00 | 87 | 1009.4 |
| 20260506071526 | 75 | 360 | 7.0 | 17.4 | 0.00 | 0.00 | 0.00 | 87 | 1009.4 |
| 20260506071446 | 75 | 360 | 6.1 | 17.4 | 0.00 | 0.00 | 0.00 | 87 | 1009.3 |
| 20260506071330 | 75 | 360 | 6.1 | 17.4 | 0.00 | 0.00 | 0.00 | 87 | 1009.4 |
| 20260506071232 | 75 | 360 | 6.1 | 17.4 | 0.00 | 0.00 | 0.00 | 87 | 1009.2 |
| 20260506071131 | 75 | 360 | 7.0 | 17.4 | 0.00 | 0.00 | 0.00 | 87 | 1009.3 |
| 20260506071034 | 75 | 360 | 7.0 | 17.4 | 0.00 | 0.00 | 0.00 | 87 | 1009.2 |
| 20260506070935 | 75 | 360 | 7.8 | 17.4 | 0.00 | 0.00 | 0.00 | 87 | 1009.2 |
| 20260506070816 | 75 | 360 | 7.8 | 18.2 | 0.00 | 0.00 | 0.00 | 87 | 1009.3 |
| 20260506070722 | 75 | 360 | 7.8 | 18.2 | 0.00 | 0.00 | 0.00 | 87 | 1009.2 |
| 20260506070620 | 75 | 360 | 7.8 | 18.2 | 0.00 | 0.00 | 0.00 | 87 | 1009.3 |
| 20260506070521 | 75 | 360 | 8.7 | 18.2 | 0.00 | 0.00 | 0.00 | 87 | 1009.4 |
| 20260506070422 | 75 | 360 | 7.8 | 18.2 | 0.00 | 0.00 | 0.00 | 87 | 1009.3 |
| 20260506070323 | 75 | 360 | 7.8 | 18.2 | 0.00 | 0.00 | 0.00 | 87 | 1009.4 |
| 20260506070224 | 75 | 360 | 8.7 | 18.2 | 0.00 | 0.00 | 0.00 | 87 | 1009.4 |
| 20260506070123 | 75 | 360 | 8.7 | 18.2 | 0.00 | 0.00 | 0.00 | 87 | 1009.4 |
| 20260506062436 | 75 | 360 | 5.2 | 15.6 | 0.00 | 0.00 | 0.00 | 86 | 1009.3 |
| 20260506062356 | 75 | 360 | 4.3 | 15.6 | 0.00 | 0.00 | 0.00 | 86 | 1009.4 |
| 20260506062236 | 75 | 360 | 4.3 | 15.6 | 0.00 | 0.00 | 0.00 | 86 | 1009.4 |
| 20260506062120 | 75 | 360 | 6.1 | 15.6 | 0.00 | 0.00 | 0.00 | 86 | 1009.4 |
| 20260506062021 | 75 | 360 | 7.0 | 15.6 | 0.00 | 0.00 | 0.00 | 87 | 1009.5 |
| 20260506061922 | 75 | 360 | 7.0 | 14.8 | 0.00 | 0.00 | 0.00 | 86 | 1009.5 |
| 20260506061843 | 75 | 360 | 7.8 | 14.8 | 0.00 | 0.00 | 0.00 | 87 | 1009.5 |
| 20260506061723 | 76 | 360 | 7.8 | 14.8 | 0.00 | 0.00 | 0.00 | 87 | 1009.5 |
| 20260506061643 | 76 | 360 | 7.8 | 14.8 | 0.00 | 0.00 | 0.00 | 87 | 1009.5 |
| 20260506061522 | 75 | 360 | 7.8 | 14.8 | 0.00 | 0.00 | 0.00 | 87 | 1009.5 |
| 20260506061427 | 76 | 360 | 7.8 | 13.9 | 0.00 | 0.00 | 0.00 | 87 | 1009.5 |
| 20260506061327 | 75 | 360 | 7.0 | 20.9 | 0.00 | 0.00 | 0.00 | 86 | 1009.5 |
| 20260506061228 | 75 | 360 | 6.1 | 20.9 | 0.00 | 0.00 | 0.00 | 86 | 1009.5 |
| 20260506061127 | 75 | 360 | 5.2 | 20.9 | 0.00 | 0.00 | 0.00 | 87 | 1009.5 |
| 20260506061029 | 76 | 360 | 6.1 | 20.9 | 0.00 | 0.00 | 0.00 | 87 | 1009.4 |
| 20260506060950 | 75 | 360 | 7.8 | 20.9 | 0.00 | 0.00 | 0.00 | 87 | 1009.4 |
| 20260506060828 | 75 | 360 | 8.7 | 20.9 | 0.00 | 0.00 | 0.00 | 86 | 1009.4 |
| 20260506060729 | 76 | 360 | 8.7 | 20.9 | 0.00 | 0.00 | 0.00 | 86 | 1009.4 |
| 20260506060633 | 76 | 360 | 9.6 | 20.9 | 0.00 | 0.00 | 0.00 | 86 | 1009.3 |
| 20260506060533 | 75 | 360 | 9.6 | 20.9 | 0.00 | 0.00 | 0.00 | 87 | 1009.3 |
| 20260506060434 | 75 | 360 | 10.4 | 20.9 | 0.00 | 0.00 | 0.00 | 87 | 1009.3 |
| 20260506060334 | 75 | 360 | 9.6 | 20.9 | 0.00 | 0.00 | 0.00 | 87 | 1009.3 |
| 20260506060235 | 75 | 360 | 8.7 | 20.9 | 0.00 | 0.00 | 0.00 | 87 | 1009.3 |
| 20260506060135 | 75 | 360 | 8.7 | 16.5 | 0.00 | 0.00 | 0.00 | 87 | 1009.4 |
| 20260506051315 | 0 | 0.0 | 0.0 | 0.00 | 0.00 | 0.00 | 1009.5 | ||
| 20260506051223 | 0 | 0.0 | 0.0 | 0.00 | 0.00 | 0.00 | 1009.5 | ||
| 20260506051127 | 0 | 0.0 | 0.0 | 0.00 | 0.00 | 0.00 | 1009.5 | ||
| 20260506051051 | 0 | 0.0 | 0.0 | 0.00 | 0.00 | 0.00 | 1009.5 | ||
| 20260506050914 | 0 | 0.0 | 0.0 | 0.00 | 0.00 | 0.00 | 1009.6 | ||
| 20260506050818 | 0 | 0.0 | 0.0 | 0.00 | 0.00 | 0.00 | 1009.5 | ||
| 20260506050722 | 0 | 0.0 | 0.0 | 0.00 | 0.00 | 0.00 | 1009.4 | ||
| 20260506050625 | 0 | 0.0 | 0.0 | 0.00 | 0.00 | 0.00 | 1009.4 | ||
| 20260506050553 | 0 | 0.0 | 0.0 | 0.00 | 0.00 | 0.00 | 1009.6 | ||
| 20260506050319 | 0 | 0.0 | 0.0 | 0.00 | 0.00 | 0.00 | 1009.6 | ||
| 20260506050223 | 0 | 0.0 | 0.0 | 0.00 | 0.00 | 0.00 | 1009.5 | ||
| 20260506050127 | 0 | 0.0 | 0.0 | 0.00 | 0.00 | 0.00 | 1009.5 | ||
| 20260506045116 | 0 | 0.0 | 0.0 | 0.00 | 0.00 | 0.00 | 1009.6 | ||
| 20260506045023 | 0 | 0.0 | 0.0 | 0.00 | 0.00 | 0.00 | 1009.6 | ||
| 20260506044927 | 0 | 0.0 | 0.0 | 0.00 | 0.00 | 0.00 | 1009.5 | ||
| 20260506044831 | 0 | 0.0 | 0.0 | 0.00 | 0.00 | 0.00 | 1009.5 | ||
| 20260506044754 | 0 | 0.0 | 0.0 | 0.00 | 0.00 | 0.00 | 1009.5 | ||
| 20260506044719 | 0 | 0.0 | 0.0 | 0.00 | 0.00 | 0.00 | 1009.5 | ||
| 20260506044514 | 0 | 0.0 | 0.0 | 0.00 | 0.00 | 0.00 | 1009.5 | ||
| 20260506044438 | 0 | 0.0 | 0.0 | 0.00 | 0.00 | 0.00 | 1009.5 | ||
| 20260506044325 | 0 | 0.0 | 0.0 | 0.00 | 0.00 | 0.00 | 1009.5 | ||
| 20260506044228 | 0 | 0.0 | 0.0 | 0.00 | 0.00 | 0.00 | 1009.5 | ||
| 20260506044132 | 0 | 0.0 | 0.0 | 0.00 | 0.00 | 0.00 | 1009.5 | ||
| 20260506044035 | 0 | 0.0 | 0.0 | 0.00 | 0.00 | 0.00 | 1009.4 | ||
| 20260506043938 | 0 | 0.0 | 0.0 | 0.00 | 0.00 | 0.00 | 1009.4 | ||
| 20260506043814 | 0 | 0.0 | 0.0 | 0.00 | 0.00 | 0.00 | 1009.4 | ||
| 20260506043717 | 0 | 0.0 | 0.0 | 0.00 | 0.00 | 0.00 | 1009.5 | ||
| 20260506043626 | 0 | 0.0 | 0.0 | 0.00 | 0.00 | 0.00 | 1009.5 | ||
| 20260506043530 | 0 | 0.0 | 0.0 | 0.00 | 0.00 | 0.00 | 1009.3 | ||
| 20260506043414 | 0 | 0.0 | 0.0 | 0.00 | 0.00 | 0.00 | 1009.5 | ||
| 20260506043318 | 0 | 0.0 | 0.0 | 0.00 | 0.00 | 0.00 | 1009.4 | ||
| 20260506043221 | 0 | 0.0 | 0.0 | 0.00 | 0.00 | 0.00 | 1009.4 | ||
| 20260506043125 | 0 | 0.0 | 0.0 | 0.00 | 0.00 | 0.00 | 1009.4 | ||
| 20260506043031 | 0 | 0.0 | 0.0 | 0.00 | 0.00 | 0.00 | 1009.4 | ||
| 20260506042915 | 0 | 0.0 | 0.0 | 0.00 | 0.00 | 0.00 | 1009.3 | ||
| 20260506042820 | 0 | 0.0 | 0.0 | 0.00 | 0.00 | 0.00 | 1009.4 | ||
| 20260506042723 | 0 | 0.0 | 0.0 | 0.00 | 0.00 | 0.00 | 1009.4 | ||
| 20260506042646 | 0 | 0.0 | 0.0 | 0.00 | 0.00 | 0.00 | 1009.4 | ||
| 20260506042528 | 0 | 0.0 | 0.0 | 0.00 | 0.00 | 0.00 | 1009.4 | ||
| 20260506042436 | 0 | 0.0 | 0.0 | 0.00 | 0.00 | 0.00 | 1009.4 | ||
| 20260506042338 | 0 | 0.0 | 0.0 | 0.00 | 0.00 | 0.00 | 1009.4 | ||
| 20260506042214 | 0 | 0.0 | 0.0 | 0.00 | 0.00 | 0.00 | 1009.3 | ||
| 20260506042118 | 0 | 0.0 | 0.0 | 0.00 | 0.00 | 0.00 | 1009.4 | ||
| 20260506042021 | 0 | 0.0 | 0.0 | 0.00 | 0.00 | 0.00 | 1009.4 | ||
| 20260506041925 | 0 | 0.0 | 0.0 | 0.00 | 0.00 | 0.00 | 1009.4 | ||
| 20260506041828 | 0 | 0.0 | 0.0 | 0.00 | 0.00 | 0.00 | 1009.3 | ||
| 20260506041715 | 0 | 0.0 | 0.0 | 0.00 | 0.00 | 0.00 | 1009.4 | ||
| 20260506041618 | 0 | 0.0 | 0.0 | 0.00 | 0.00 | 0.00 | 1009.4 | ||
| 20260506041522 | 0 | 0.0 | 0.0 | 0.00 | 0.00 | 0.00 | 1009.3 | ||
| 20260506041446 | 0 | 0.0 | 0.0 | 0.00 | 0.00 | 0.00 | 1009.2 | ||
| 20260506041315 | 0 | 0.0 | 0.0 | 0.00 | 0.00 | 0.00 | 1009.3 | ||
| 20260506041239 | 0 | 0.0 | 0.0 | 0.00 | 0.00 | 0.00 | 1009.3 | ||
| 20260506041123 | 0 | 0.0 | 0.0 | 0.00 | 0.00 | 0.00 | 1009.3 | ||
| 20260506041030 | 0 | 0.0 | 0.0 | 0.00 | 0.00 | 0.00 | 1009.3 | ||
| 20260506040913 | 0 | 0.0 | 0.0 | 0.00 | 0.00 | 0.00 | 1009.2 | ||
| 20260506040838 | 0 | 0.0 | 0.0 | 0.00 | 0.00 | 0.00 | 1009.3 | ||
| 20260506040719 | 0 | 0.0 | 0.0 | 0.00 | 0.00 | 0.00 | 1009.2 | ||
| 20260506040623 | 0 | 0.0 | 0.0 | 0.00 | 0.00 | 0.00 | 1009.2 | ||
| 20260506040526 | 0 | 0.0 | 0.0 | 0.00 | 0.00 | 0.00 | 1009.3 | ||
| 20260506040415 | 0 | 0.0 | 0.0 | 0.00 | 0.00 | 0.00 | 1009.4 | ||
| 20260506040339 | 0 | 0.0 | 0.0 | 0.00 | 0.00 | 0.00 | 1009.4 | ||
| 20260506040214 | 0 | 0.0 | 0.0 | 0.00 | 0.00 | 0.00 | 1009.2 | ||
| 20260506040139 | 0 | 0.0 | 0.0 | 0.00 | 0.00 | 0.00 | 1009.2 | ||
| 20260506040014 | 0 | 0.0 | 0.0 | 0.00 | 0.00 | 0.00 | 1009.1 | ||
| 20260506035918 | 0 | 0.0 | 0.0 | 0.00 | 0.00 | 0.00 | 1009.1 | ||
| 20260506035842 | 0 | 0.0 | 0.0 | 0.00 | 0.00 | 0.00 | 1009.1 | ||
| 20260506035750 | 0 | 0.0 | 0.0 | 0.00 | 0.00 | 0.00 | 1009.1 | ||
| 20260506035713 | 0 | 0.0 | 0.0 | 0.00 | 0.00 | 0.00 | 1009.1 | ||
| 20260506035532 | 0 | 0.0 | 0.0 | 0.00 | 0.00 | 0.00 | 1009.1 | ||
| 20260506035416 | 0 | 0.0 | 0.0 | 0.00 | 0.00 | 0.00 | 1009.1 | ||
| 20260506035321 | 0 | 0.0 | 0.0 | 0.00 | 0.00 | 0.00 | 1009.0 | ||
| 20260506035225 | 0 | 0.0 | 0.0 | 0.00 | 0.00 | 0.00 | 1009.0 | ||
| 20260506035128 | 0 | 0.0 | 0.0 | 0.00 | 0.00 | 0.00 | 1009.1 | ||
| 20260506035015 | 0 | 0.0 | 0.0 | 0.00 | 0.00 | 0.00 | 1009.1 | ||
| 20260506034919 | 0 | 0.0 | 0.0 | 0.00 | 0.00 | 0.00 | 1009.0 | ||
| 20260506034823 | 0 | 0.0 | 0.0 | 0.00 | 0.00 | 0.00 | 1009.1 | ||
| 20260506034747 | 0 | 0.0 | 0.0 | 0.00 | 0.00 | 0.00 | 1009.1 | ||
| 20260506034628 | 0 | 0.0 | 0.0 | 0.00 | 0.00 | 0.00 | 1009.0 | ||
| 20260506034513 | 0 | 0.0 | 0.0 | 0.00 | 0.00 | 0.00 | 1009.1 | ||
| 20260506034421 | 0 | 0.0 | 0.0 | 0.00 | 0.00 | 0.00 | 1009.0 | ||
| 20260506034346 | 0 | 0.0 | 0.0 | 0.00 | 0.00 | 0.00 | 1009.0 | ||
| 20260506034229 | 0 | 0.0 | 0.0 | 0.00 | 0.00 | 0.00 | 1009.1 | ||
| 20260506034152 | 0 | 0.0 | 0.0 | 0.00 | 0.00 | 0.00 | 1009.0 |